cliquez pour ajouter le site Runraid à vos favoris  English version (google)  Retour à l'accueil Ecrire à l'auteur du site Runraid : Michel Jourdan


 Visitez La Boutique 


 Diagonale des Fous 

Ecrire au créateur du site : Michel Jourdan
Contact


2014-10-26 - Les Templiers 2014

Pour consulter le palmarès d'un coureur, un clic sur son nom !

Vous avez des remarques, corrections, ... sur ces résultats , un clic sur --> pour me transmettre toute information concernant les classements


Les Templiers 2014 - 2014 : classement des 1938 finishers
Place Nom Temps Cat. Club Sexe Clt/cat.
Place Nom Temps Cat. Club Sexe Clt/cat.
1 CORI Benoit 06:36:49 SEM TEAM ENDURANCE SHOP BORDE M 753
2 COURT Sylvain 06:39:15 SEM TEAM France M 27
3 NICHOLS Alex 06:43:14 SEM TEAM USA M 17
4 CANADAY Sage 06:45:00 SEM TEAM USA M 18
5 MILLER Zach 06:51:01 SEM TEAM USA M 16
6 HERAS Miguel 06:59:05 SEM - M 238
7 GAULT Manu 07:01:10 SEM TEAM ASICS TRAIL M 40
8 PETITJEAN Clement 07:01:11 SEM TEAM ASICS TRAIL M 66
9 SWIERC Marcin 07:02:43 SEM TEAM EUROPE M 10
10 BUUD Jonas 07:04:06 V1H TEAM EUROPE M 1 V1H 6
11 DAPIT Fulvio 07:05:10 SEM TEAM CRAZY IDEA LA SPORTI M 10 SEH 235
12 PERRIGNON Arnaud 07:09:20 V1H TEAM ASICS TRAIL M 2 V1H 68
13 MARTIN Nicolas 07:09:44 SEM TEAM France M 11 SEH 29
14 ANTOLINOS Fabien 07:12:10 SEM TEAM France M 12 SEH 25
15 LANTZ Johan 07:15:39 SEM - M 13 SEH 45
16 REYT Martin 07:21:41 SEM SIGVARIS SPORT TEAM TRAIL M 14 SEH 240
17 HERMANSEN Didrik 07:21:53 SEM TEAM EUROPE M 15 SEH 9
18 GIGUET Pascal 07:27:02 V1H - M 3 V1H 42
19 LE PORHO David 07:29:42 SEM - M 16 SEH 1900
20 DUHAIL Nicolas 07:31:01 SEM - M 17 SEH 169
21 BELLAMY Benjamin 07:32:32 SEM - M 18 SEH 37
22 SPEHLER Sebastien 07:44:38 SEM TEAM France M 19 SEH 26
23 CLAVERY Erik 07:47:33 SEM TEAM ADIDAS M 20 SEH 54
24 HOLZERNY Benoit 07:47:34 SEM TEAM ADIDAS M 21 SEH 74
25 GARNIER Francis 07:48:10 SEM - M 22 SEH 41
26 DUHAIL Jonathan 07:49:37 SEM - M 23 SEH 104
27 DE PAEPE Romuald 07:51:36 SEM TEAM ADIDAS M 24 SEH 52
28 PICAS Nuria 07:51:46 SEF TEAM EUROPE F 1ere F 2
29 LAPORTE Vivien 07:57:14 SEM - M 25 SEH 124
30 DURAND Nicolas 07:57:21 SEM - M 26 SEH 170
31 JUNG Frederic 07:59:30 SEM - M 27 SEH 108
32 BENEDICTO Juliette 08:00:33 SEF TEAM SALOMON F 2eme F 49
33 BOULET Magdalena 08:02:40 V1F TEAM USA F 3eme F - 1 V1F 11
34 MOTTET Alexis 08:06:48 SEM - M 28 SEH 179
35 LE BOULCH Gwenael 08:08:12 SEM - M 29 SEH 746
36 PIGNET Christophe 08:09:30 V1H - M 4 V1H 502
37 LECHAT Jean Louis 08:14:10 V1H - M 5 V1H 130
38 BUSCHINO Romain 08:14:55 SEM TEAM TECNICA M 30 SEH 72
39 WARD John 08:14:58 V1H - M 6 V1H 95
40 MAHE Christian 08:15:06 V1H - M 7 V1H 177
41 CANALS Jean Claude 08:18:14 V2H - M 1 V2H 764
42 LE BOULANGER Christophe 08:18:17 SEM - M 31 SEH 174
43 JAULIN Matthias 08:18:39 SEM - M 32 SEH 234
44 LE GUEVEL Jerome 08:18:55 SEM - M 33 SEH 127
45 POURSAC Clement 08:18:59 SEM - M 34 SEH 142
46 GOBERT Maud 08:20:18 SEF TEAM France F 4eme F 21
47 LAPIERRE Aliza 08:20:35 SEF TEAM USA F 5eme F 15
48 FLAHERTY Matt 08:20:51 SEM TEAM USA M 35 SEH 20
48 POLLET Ludovic 08:20:51 SEM - M 35 SEH 524
50 CORNUAU Damien 08:21:47 SEM - M 37 SEH 399
51 VITET Adrien 08:23:33 SEM - M 38 SEH 156
52 BRUNET Xavier 08:24:03 V1H - M 8 V1H 85
53 DUC Stephanie 08:24:53 SEF TEAM France F 6eme F 24
54 BUSTINGORRY Pierre 08:25:18 SEM - M 39 SEH 87
55 RUSH Holly 08:25:33 SEF TEAM EUROPE F 7eme F 3
56 CANTE Bruno 08:25:47 V1H - M 9 V1H 88
57 BEYNEL Patrice 08:25:49 V1H - M 10 V1H 81
58 SUPPI Jerome 08:26:16 SEM - M 40 SEH 149
59 LACZAK Magdalena 08:26:44 SEF TEAM EUROPE F 8eme F 5
60 JEGOU Yann 08:27:49 V1H - M 11 V1H 120
61 TRUEL Aurelia 08:28:39 SEF TEAM France F 9eme F 23
62 CHARPENTIER Loic 08:30:29 SEM - M 41 SEH 369
63 LLORENS Denis 08:31:00 SEM - M 42 SEH 1078
64 PITAUT Stephane 08:32:40 SEM - M 43 SEH 380
65 DONZEAU Pierre 08:32:54 SEM - M 44 SEH 233
66 SCALLON Cassandra 08:36:15 SEF TEAM USA F 10eme F 12
67 HECQUET Stephane 08:37:33 SEM - M 45 SEH 115
68 GRANGE Gaetan 08:39:56 SEM - M 46 SEH 337
69 MORISSE Yoann 08:40:40 SEM - M 47 SEH 178
70 BETHELL Anthony 08:41:20 V1H - M 12 V1H 649
71 ROSEAU Teddy 08:42:44 SEM - M 48 SEH 144
72 LE SOZ Antoine 08:43:49 SEM - M 49 SEH 378
73 NORIS Pierre 08:44:30 SEM - M 50 SEH 140
74 BULIDON Frederick 08:47:14 V1H TEAM RUNNING SHOP ADIDAS M 13 V1H 86
75 COUCHOUD Fabrice 08:48:09 SEM TEAM ENDURANCE SHOP ST ET M 51 SEH 756
76 CONVERT Jean Marc 08:50:03 V1H - M 14 V1H 89
77 WILLMANN Cedric 08:50:13 V1H - M 15 V1H 158
78 BRAZEAU Jean Francois 08:50:35 V1H - M 16 V1H 346
79 CHOVET Aymeric 08:51:40 SEM - M 52 SEH 646
80 NUNIGE Jasmine 08:52:33 V1F TEAM EUROPE F 2 V1F 4
81 DESCAMPS David 08:53:09 SEM - M 53 SEH 481
82 BOUSTIE Aurelien 08:53:29 SEM - F 54 SEH 639
83 MARCEAU Xavier 08:53:37 SEM - M 55 SEH 1868
84 GOVIGNON Virginie 08:54:09 SEF - F 10 SEF 43
85 BRUYAS Richard 08:56:23 V1H - M 17 V1H 417
86 XHAUFLAIR Regis 08:58:04 SEM - M 56 SEH 159
87 LOTHODE Patrick 09:00:27 V2H LES CHEVALIERS DU VENT M 2 V2H 46
88 DUPUY Stephane 09:01:19 V1H - M 18 V1H 672
89 DESSILLA Stephane 09:01:44 SEM - M 57 SEH 597
90 MAZERAND Mathieu 09:02:03 V1H - M 19 V1H 526
91 ENNEBECK Thierry 09:02:27 V1H - M 20 V1H 100
92 MAJEWSKI David 09:04:59 SEM - M 58 SEH 134
93 TARENNE Adrien 09:05:47 SEM - M 59 SEH 307
94 CHAMARD David 09:06:15 SEM - M 60 SEH 917
95 TREGUIER Yoann 09:07:15 SEM - M 61 SEH 670
96 PELLETIER Matthieu 09:07:23 SEM - M 62 SEH 2754
97 SERRERO Marc 09:08:16 V2H - M 3 V2H 183
98 GAPIHAN Pierre 09:08:45 SEM - M 63 SEH 716
99 VAN EXE Mickael 09:10:43 SEM - M 64 SEH 154
100 BeGUE Stephane 09:11:35 SEM - M 65 SEH 2734
101 LECLAINCHE Julien 09:12:42 SEM - M 66 SEH 131
102 COQUARD Aline 09:13:59 SEF ENDURANCE SHOP VILLEFRANC F 11 SEF 166
103 CHASTAND Alain 09:14:29 SEM - M 67 SEH 641
104 YOHAN BOYER Marc 09:14:38 SEM - M 68 SEH 2564
105 JALABERT Nicolas 09:16:04 V1H - M 21 V1H 119
106 GALLAND Cyril 09:16:09 SEM - M 69 SEH 110
107 SAINT MARTIN Pantxo 09:16:28 ESH - M 1 ESH 1310
108 ARNAUD Sylvain 09:17:49 SEM - M 70 SEH 701
109 HAUSER Xavier 09:17:55 SEM - M 71 SEH 709
110 CESBRON Xavier 09:17:57 SEM - M 72 SEH 164
111 TROTTIER Vincent 09:18:35 SEM - M 73 SEH 184
112 DELEPINE Sylvain 09:18:37 V1H - M 22 V1H 615
113 THURIN Frederic 09:18:47 SEM - M 74 SEH 345
114 NICOT Francois 09:18:57 V1H - M 23 V1H 141
115 FLOCHEL Damien 09:19:07 V1H - M 24 V1H 171
116 PAULHE Romain 09:19:36 SEM - M 75 SEH 428
117 GAUDIN Benoit 09:19:57 SEM - M 76 SEH 473
118 LECHANTEUR Denis 09:20:25 V1H - M 25 V1H 129
119 RZESZUTKO Conrad 09:21:29 SEM - M 77 SEH 1403
120 HUILLET Stephane 09:22:07 V1H - M 26 V1H 118
121 GIGON Aymeric 09:22:33 SEM - M 78 SEH 111
122 LAGARENNE Alexandre 09:22:47 SEM - M 79 SEH 121
123 HANQUEZ Rodrigue 09:22:58 SEM - M 80 SEH 114
124 GADET Fabien 09:23:50 SEM - M 81 SEH 420
125 HANRY Gerald 09:26:32 V1H - M 27 V1H 522
126 TUEL Dominique 09:26:42 SEM - M 82 SEH 152
127 EYROULET Nicolas 09:28:09 SEM - M 83 SEH 1875
128 HACQUES Mickael 09:28:44 SEM - M 84 SEH 405
129 DILMI Christian 09:28:50 V1H TEAM TRAIL ISOSTAR M 28 V1H 53
130 BOQUILLET Laurent 09:29:21 V1H - M 29 V1H 84
131 MAES Paul 09:32:14 SEM - M 85 SEH 175
132 CHARMASSON Florent 09:34:02 V1H - M 30 V1H 452
133 BAROCHE Thibault 09:34:16 SEM - M 86 SEH 638
134 GERMAIN Sebastien 09:35:09 SEM - M 87 SEH 1784
135 LAUMOND Eric 09:35:11 V1H - M 31 V1H 593
136 GAUBERT Vincent 09:36:45 V1H - M 32 V1H 664
137 GUIBBAL Christophe 09:38:19 V1H - M 33 V1H 389
138 PIGEON Olivier 09:38:33 SEM - M 88 SEH 224
139 COTTIER Anthony 09:39:34 SEM - M 89 SEH 90
140 HEILMANN Cedric 09:39:45 SEM - M 90 SEH 232
141 DUBES Claire 09:40:16 SEF CLUB ESPRIT TRAIL ANJOU F 12 SEF 103
142 HARDENNE Frederick 09:40:33 V1H - M 34 V1H 542
143 GUITTON Philippe 09:40:34 V1H - M 35 V1H 599
144 DUMORTIER Stephane 09:41:02 V1H - M 36 V1H 1505
145 MARTIN Sebastien 09:41:41 SEM TEAM ENDURANCE SHOP BORDE M 91 SEH 754
146 SUBIRA Matthieu 09:41:50 SEM - M 92 SEH 1153
147 QUINTON Christophe 09:41:58 V1H - M 37 V1H 1837
148 MARTIN Clement 09:42:17 SEM - M 93 SEH 2909
149 COURONNEL Jerome 09:42:51 V1H - M 38 V1H 92
150 THUAULT Michel 09:43:09 V2H - M 4 V2H 556
151 DAUCH Frederic 09:43:41 SEM - M 94 SEH 487
152 GIRARD Adrien 09:43:42 SEM - M 95 SEH 536
153 MOUREAUD Sebastien 09:44:00 SEM - M 96 SEH 182
154 LATCHIMY Thierry 09:44:04 SEM - M 97 SEH 125
155 PAUPY Benoit 09:44:33 ESH - M 2 ESH 2489
156 BONNEAU Paul Eric 09:44:54 V2H - M 5 V2H 83
157 MAIRY Mickael 09:45:01 SEM - M 98 SEH 607
158 VAN COURT Sean 09:45:06 V1H TEAM INSTINCT FRANCE M 39 V1H 745
159 LE CLAIRE Frederic 09:45:15 V1H - M 40 V1H 394
160 AUTHIER Nicolas 09:45:44 SEM - M 99 SEH 540
161 CHEVERRY Christophe 09:45:52 V1H - M 41 V1H 1666
162 LOTHODe Theo 09:46:01 ESH - M 3 ESH 47
163 VINET Philippe 09:46:17 V1H - M 42 V1H 391
164 DESMET Laurent 09:46:55 SEM - M 100 SEH 2392
165 FERNANDES Dinis 09:46:57 SEM - M 101 SEH 581
166 DIGUET Christophe 09:46:59 SEM - M 102 SEH 401
167 ROUe Cedric 09:47:05 SEM - M 103 SEH 2322
168 MARESSE Jean Baptiste 09:47:07 SEM - M 104 SEH 136
169 SUPPI Laurent 09:47:40 SEM - M 105 SEH 1271
170 MUSSEAU Florian 09:47:44 SEM - M 106 SEH 359
171 DARRIEUTORT Xavier 09:47:50 SEM - M 107 SEH 618
172 LOEUILLIEUX Stephane 09:48:24 V1H - M 43 V1H 133
173 LAMBERT Frederic 09:48:26 V1H - M 44 V1H 123
174 LEPERLIER Eric 09:49:23 V1H - M 45 V1H 2718
175 LAURENT Julien 09:49:25 SEM - M 108 SEH 2258
176 THOUVENIN Eric 09:50:31 V1H - M 46 V1H 735
177 JOUANDET Denis 09:51:10 V1H - M 47 V1H 500
178 SIMON Christophe 09:51:26 SEM - M 109 SEH 586
179 THIESSE Bernard 09:51:53 V3H - M 1 V3H 634
180 DUBREUIL Sylvain 09:52:20 SEM - M 110 SEH 916
181 ROMERO Fabien 09:52:21 V1H - M 48 V1H 264
181 GAUVIN Guillaume 09:52:21 V1H - M 48 V1H 2954
183 DURAND Frederic 09:52:58 V1H - M 50 V1H 105
184 VALADE Cedric 09:53:09 V1H - M 51 V1H 2116
185 ATZENI Laurie 09:54:10 SEF TEAM ENDURANCE SHOP F 13 SEF 78
185 BARILLEAU Julien 09:54:10 SEM - M 111 SEH 1017
187 ROY Jerome 09:54:43 SEM - M 112 SEH 1120
188 BEGOC Aurelien 09:55:05 SEM - F 113 SEH 288
189 REDIER David 09:55:29 SEM - M 114 SEH 421
190 GAUDUCHON Bertrand 09:56:54 V1H - M 52 V1H 280
191 DECOMBE Sebastien 09:58:10 SEM - M 115 SEH 1669
192 REYMOND Georges Olivier 09:59:17 SEM - M 116 SEH 568
193 TEYSSANDIE Marc 09:59:27 V1H - M 53 V1H 1169
194 FAUGIER Remi 09:59:58 SEM - M 117 SEH 1847
195 ABRAHAM Emmanuel 10:00:01 V1H - M 54 V1H 284
196 GALONNIER Antoine 10:00:30 SEM - M 118 SEH 667
197 BOCH Franck 10:00:32 SEM - M 119 SEH 429
198 HENRIQUES Nathalie 10:01:07 SEF - F 14 SEF 612
199 GLIKMAN Antoine 10:01:20 SEM - M 120 SEH 899
200 LEBRUN Romain 10:01:23 ESH - M 4 ESH 186
201 URLACHER Olivier 10:01:49 SEM - M 121 SEH 2411
202 SANTIN Fabrice 10:02:34 V1H - M 55 V1H 430
203 DELPUECH Thibault 10:02:55 SEM - M 122 SEH 1787
204 BILLAND Martial 10:03:24 V1H - M 56 V1H 415
205 GODEFROY Olivier 10:04:00 V2H - M 6 V2H 173
206 DINCLAUX Sarah 10:04:41 SEF - F 15 SEF 385
207 IMART Olivier 10:04:53 SEM - M 123 SEH 2415
208 BAREL Stephane 10:04:56 V1H - M 57 V1H 1456
209 TROU ROY Romuald 10:05:30 V1H - M 58 V1H 519
210 ADNET Abel 10:05:38 SEM - M 124 SEH 658
211 MILHORAT Ludovic 10:05:49 SEM - M 125 SEH 567
212 MAHe Olivier 10:06:25 V1H - M 59 V1H 2005
213 ROUDEL Luc 10:06:48 SEM - M 126 SEH 489
214 LLOVERAS Pierre 10:07:02 SEM - M 127 SEH 715
215 THOMELIN Pascal 10:07:46 V2H - M 7 V2H 691
216 COMBES Fabien 10:07:59 V1H - M 60 V1H 608
216 MOREAU Sebastien 10:07:59 V1H - M 60 V1H 2282
218 AEBERLI Fabien 10:08:02 V1H - M 62 V1H 199
219 CALMELS Stephan 10:08:11 SEM - M 128 SEH 194
220 BOS Cyril 10:08:19 V1H - M 63 V1H 116
221 BALDET Loic 10:08:41 SEM - M 129 SEH 289
222 SCHWARZ Simone 10:09:42 SEF - F 16 SEF 197
223 BRIAND Pierre Yves 10:10:10 SEM - M 130 SEH 627
224 CAMON Alexandre 10:10:23 SEM - M 131 SEH 454
225 SAOZANET Stephane 10:10:26 V1H - M 64 V1H 146
226 RIBA Julien 10:10:41 SEM - M 132 SEH 305
227 DRODE Julien 10:10:49 SEM - M 133 SEH 303
228 ROUDEL Vincent 10:10:53 SEM - M 134 SEH 1762
229 BOUDOU Frederic 10:11:54 SEM - M 135 SEH 494
230 TRABUCHET Ludovic 10:12:38 SEM - M 136 SEH 151
231 ALLILAIRE Franck 10:12:43 V1H - M 65 V1H 732
232 COLOMBIER Pierre 10:12:45 SEM - M 137 SEH 412
233 BOULON Sebastien 10:13:04 SEM - M 138 SEH 981
234 KLUFTS Eric 10:13:05 V1H - M 66 V1H 442
235 MAREE Christophe 10:13:09 SEM - M 139 SEH 533
236 CHOQUET Remi 10:13:25 V1H - M 67 V1H 439
237 PLAGNOL Francois 10:13:26 SEM - M 140 SEH 193
238 CATIe Audrey 10:13:28 SEF - F 17 SEF 1507
239 PHILIPPE Frederic 10:13:39 V1H - M 68 V1H 408
240 PINCK Mickael 10:14:01 SEM - M 141 SEH 407
241 ERIK HALVORSEN Tom 10:14:16 SEM - M 142 SEH 44
242 BAUBET Francoise 10:14:37 V1F - F 3 V1F 79
243 DELHOM Jonathan 10:14:48 SEM - M 143 SEH 2069
244 BABIN Stephane 10:15:21 SEM - M 144 SEH 446
245 BOURASSEAU David 10:15:30 SEM - M 145 SEH 352
246 PANADER Eric 10:15:33 SEM - M 146 SEH 872
247 DUMONT Mathieu 10:15:39 SEM - M 147 SEH 443
248 POYETTON Pascal 10:16:04 V1H - M 69 V1H 1560
249 VIGNAUD Christian 10:16:08 V2H - M 8 V2H 34
250 MOREAU Pascal 10:16:09 V2H - M 9 V2H 33
251 VALLA Olivier 10:17:20 V1H - M 70 V1H 1920
252 LEBRAY David 10:17:39 SEM - M 148 SEH 128
253 DELANNOY Elise 10:17:59 SEF - F 18 SEF 714
254 TESTEIL Marc 10:18:12 V1H - M 71 V1H 333
255 EMENNE Frederic 10:18:35 SEM - M 149 SEH 195
256 MILA Gregory 10:19:10 SEM - M 150 SEH 1991
257 BREQUEVILLE Samuel 10:19:17 V1H - M 72 V1H 272
257 MAUCUIT Sebastien 10:19:17 SEM - M 151 SEH 529
259 SIMON Stephane 10:19:20 V1H - M 73 V1H 1373
260 SAGNES Nicolas 10:20:11 V1H - M 74 V1H 483
261 GREY Sebastien 10:20:17 SEM - M 152 SEH 547
262 SANTIAGO Jose 10:21:05 V2H - M 10 V2H 2323
263 MASBERNARD Mathieu 10:21:32 SEM - M 153 SEH 2295
264 BADIE Stephane 10:22:29 V1H - M 75 V1H 2970
265 SOUVESTRE Pascal 10:22:40 V1H - M 76 V1H 744
266 GIBAUD Patrice 10:22:46 V2H - M 11 V2H 373
267 PITON Emmanuel 10:23:23 SEM - M 154 SEH 1205
268 DELFAU Julien 10:24:01 SEM - M 155 SEH 102
269 LEMAITRE Aurelien 10:24:04 SEM - F 156 SEH 231
270 MARIEZ Fabien 10:24:16 V1H - M 77 V1H 1644
271 GROUCY Ludovic 10:24:18 V1H - M 78 V1H 431
272 RAMANICK Stelve 10:24:34 SEM - M 157 SEH 162
273 SAVART Jerome 10:24:39 SEM - M 158 SEH 301
274 DELORE Alexandre 10:24:43 SEM - M 159 SEH 695
275 AUDEBERT Laurent 10:24:55 SEM - M 160 SEH 339
275 HELAN David 10:24:55 V1H - M 79 V1H 1450
277 GREAU Benoit 10:24:56 SEM - M 161 SEH 477
278 SOUBIE Cyril 10:24:58 SEM - M 162 SEH 950
279 BROGLIO Benjamin 10:25:11 SEM - M 163 SEH 698
280 ODIAU Gerald 10:25:12 SEM - M 164 SEH 1132
281 AUTRET Laurent 10:25:25 V1H - M 80 V1H 2755
282 CRAVEIRO Nicolas 10:25:44 SEM - M 165 SEH 2209
283 OLLIER Matthieu 10:25:47 SEM - M 166 SEH 504
284 GUINEHEUX Cyril 10:26:26 SEM - M 167 SEH 523
285 SAUVe Jerome 10:26:58 V1H - M 81 V1H 865
286 HOCDE David 10:28:02 SEM - M 168 SEH 383
287 ALCHUTEGUY Jean 10:28:18 V2H - M 12 V2H 1523
288 LEBLANC Cyril 10:28:26 SEM - M 169 SEH 838
289 VASSAU Gabriel 10:29:03 SEM - M 170 SEH 2447
290 GONCALVES Antonio 10:29:09 V2H - M 13 V2H 1710
291 LATONNELLE Richard 10:29:18 SEM - M 171 SEH 126
292 BARDOU Jean Luc 10:29:35 V1H - M 82 V1H 467
293 BARBEZIER Tristan 10:29:41 SEM - M 172 SEH 1984
294 LEY Antoine 10:29:51 SEM - M 173 SEH 366
295 BRULETOURTE Mickael 10:30:20 SEM - M 174 SEH 375
296 CHOTARD Eric 10:30:26 V1H - M 83 V1H 626
297 GOURY Stephane 10:30:38 V1H - M 84 V1H 297
298 TARDIVEL Ivan 10:30:55 V1H - M 85 V1H 150
299 DURRIEU Laurent 10:31:02 V1H - M 86 V1H 580
300 DRULHE Julien 10:31:30 SEM - M 175 SEH 676
301 PHILIPPE Arnaud 10:31:56 V1H - M 87 V1H 2222
302 LE SIGNOR Patrice 10:32:07 V1H - M 88 V1H 1566
303 ABGRALL Marc 10:32:08 V1H - M 89 V1H 306
304 LE FURAUT Yann 10:32:45 V1H - M 90 V1H 353
305 LHOMME Alain 10:32:51 SEM - M 176 SEH 2895
306 GARAIX Christophe 10:33:50 SEM - M 177 SEH 610
307 JEANNIOT Thomas 10:34:04 V1H - M 91 V1H 686
308 VERGNAUX Mathieu 10:34:07 SEM - M 178 SEH 563
309 MeTAYe Thibault 10:35:00 SEM - M 179 SEH 1627
310 METAYe Thomas 10:35:02 SEM - M 180 SEH 1903
311 THARION Matthieu 10:35:06 SEM - M 181 SEH 256
312 GALLEGO Jerome 10:35:18 V1H - M 92 V1H 226
313 LE CANN Yann 10:35:38 SEM - M 182 SEH 276
314 BROSSEAU Sebastien 10:35:44 V1H - M 93 V1H 596
315 GRAS Bertrand 10:36:35 SEM - M 183 SEH 419
316 CAMPTON Pierre 10:36:58 SEM - M 184 SEH 2358
317 CARTAGENA Kevin 10:37:36 SEM - M 185 SEH 867
318 CHAUVIN Mathieu 10:38:48 SEM - M 186 SEH 545
319 DANNECKER Eric 10:40:06 V1H - M 94 V1H 398
320 DAYOT Mickael 10:40:08 SEM - M 187 SEH 2018
321 DUHAMEL Alain 10:40:14 V1H - M 95 V1H 161
322 TIQUET Cedric 10:40:19 SEM - M 188 SEH 1867
323 PERNIN Jean Francois 10:41:04 V1H - M 96 V1H 2651
324 BRUNO Fred 10:41:26 V1H - M 97 V1H 535
325 LOISEAU Jean Michel 10:41:27 V1H - M 98 V1H 497
326 DERAULT Philippe 10:41:28 V1H - M 99 V1H 574
327 VALIN Fabrice 10:41:31 V1H - M 100 V1H 390
328 LENORMAND Frederic 10:42:01 SEM - M 189 SEH 1547
329 PREVOST Christophe 10:42:05 V1H - M 101 V1H 625
330 CHARON Aurelien 10:42:14 SEM - F 190 SEH 268
331 CORRe Bruno 10:42:31 V1H - M 102 V1H 409
332 GOBY Fabien 10:43:12 SEM - M 191 SEH 265
333 BEAUJOIN Pierre 10:43:20 SEM - M 192 SEH 592
334 MAUNIER Eric 10:43:22 V2H - M 14 V2H 650
335 LEFEBVRE Romain 10:43:32 SEM - M 193 SEH 2884
336 BECHAUX Benjamin 10:43:34 SEM - M 194 SEH 2973
337 BAILLEUX Nicolas 10:44:02 SEM - M 195 SEH 2332
338 MEJEAN Thibaud 10:44:29 SEM - M 196 SEH 530
339 BERTHEAU Emilien 10:45:11 SEM - M 197 SEH 977
340 CHAUVIN Noel 10:45:12 V1H - M 103 V1H 1097
341 GROLLEAU Romain 10:45:24 SEM - M 198 SEH 2550
342 ROUSSEAU Cyril 10:45:33 V1H - M 104 V1H 261
343 LEFEBVRE Laurent 10:46:02 SEM - M 199 SEH 2793
344 SOULIER Thierry 10:46:08 V2H - M 15 V2H 311
345 GAUTRELET Samuel 10:46:14 SEM - M 200 SEH 482
346 MONTGAILLARD Gilles 10:46:20 SEM - M 201 SEH 273
347 BOURENE Fabien 10:46:46 SEM - M 202 SEH 2753
348 VIALE Laurent 10:47:07 V1H - M 105 V1H 548
349 LIARTE Thomas 10:47:39 SEM - M 203 SEH 655
350 BUIL Benjamin 10:47:40 SEM - M 204 SEH 647
351 CADIER Patrice 10:47:41 V1H - M 106 V1H 459
352 CURNILLAT Thierry 10:48:04 V1H - M 107 V1H 2181
353 DUTOUR Samuel 10:48:40 V1H - M 108 V1H 1415
354 GUILLOUX Regis 10:48:50 V1H - M 109 V1H 367
355 SERVIZET David 10:49:39 V1H - M 110 V1H 573
356 KERN Martin 10:49:45 SEM - M 205 SEH 2633
357 DESROSES Christophe 10:49:47 V1H - M 111 V1H 1591
358 CHAUVIERE Nicolas 10:49:51 V1H - M 112 V1H 1693
359 MARIONNEAU Christophe 10:50:06 V1H - M 113 V1H 185
360 SANQUER Cedric 10:50:21 SEM - M 206 SEH 1482
361 VIVIEN Olivier 10:50:58 SEM - M 207 SEH 157
362 GAVALDA Jerome 10:51:14 V1H - M 114 V1H 575
363 MARTIN Eric 10:51:15 V1H - M 115 V1H 2824
364 SOUBIE Jerome 10:51:17 SEM - M 208 SEH 1081
365 SIDRI Hassan 10:51:19 V1H - M 116 V1H 456
366 DAVER Leopold 10:51:21 SEM - M 209 SEH 1652
366 JUHEL Nicolas 10:51:21 SEM - M 209 SEH 2871
368 LEVIER Alexandre 10:51:53 V1H - M 117 V1H 2074
369 SCHLOSSER Jerome 10:52:27 V1H - M 118 V1H 319
370 POULIQUEN Dominique 10:52:30 V2H - M 16 V2H 400
371 RAGAUD Bruno 10:52:40 V1H - M 119 V1H 609
372 MARTINEZ Laurent 10:52:42 SEM - M 211 SEH 406
373 VANDEPUTTE Fabrice 10:53:02 V2H - M 17 V2H 528
374 VARNIER Sylvain 10:53:11 SEM - M 212 SEH 587
375 BOURREL Patrick 10:53:16 V2H - M 18 V2H 2160
376 COLLARD Fabrice 10:53:23 V1H - M 120 V1H 571
377 LANGLOIS Pascal 10:53:37 V2H - M 19 V2H 2066
378 MABILOTTE Franck 10:54:00 V1H - M 121 V1H 372
379 CHABANNIER Christophe 10:54:07 SEM - M 213 SEH 1284
379 POGORELY Rodolphe 10:54:07 V1H - M 122 V1H 330
381 COUSINIE Mathieu 10:54:22 SEM - M 214 SEH 512
382 PATRAS Adrien 10:54:30 SEM - M 215 SEH 621
383 GIRANDIER Thadde 10:54:48 SEM - M 216 SEH 434
384 VANCAYZEELE Sandra 10:54:50 SEF - F 19 SEF 507
385 DERI Philippe 10:55:07 V1H - M 123 V1H 1336
386 ABERLENC Sebastien 10:55:37 SEM - M 217 SEH 2744
387 DUCASSE Laurent 10:56:14 SEM - M 218 SEH 879
388 BENAYAD Abdallah 10:56:16 SEM - M 219 SEH 2893
389 BOURGOIN Gilles 10:56:26 SEM - M 220 SEH 495
390 BRUNO Philippe 10:56:27 V2H - M 20 V2H 622
390 DUFLOT Julien 10:56:27 SEM - M 221 SEH 1726
392 MONNEREAU Bruno 10:56:28 V1H - M 124 V1H 1620
393 DAVID Guillaume 10:56:31 SEM - M 222 SEH 903
394 L'HERMENIER Virginie 10:56:37 V1F - F 4 V1F 874
395 HOARAU Armand 10:56:49 SEM - M 223 SEH 2722
396 CORMIER Gilles 10:57:02 V2H - M 21 V2H 560
396 ETHEVE Remy 10:57:02 SEM - M 224 SEH 2226
398 RABEC Pierre Emmanuel 10:57:13 SEM - M 225 SEH 278
399 GUISSEAU Thierry 10:57:14 V2H - M 22 V2H 1079
400 DUQUESNE Benoit 10:57:16 SEM TEAM KALENJI M 226 SEH 728
401 SIBI Dominique 10:57:25 SEM - M 227 SEH 704
402 BONNEAU Denis 10:57:30 V1H - M 125 V1H 2547
403 DE SOUSA Fernando 10:57:33 V1H - M 126 V1H 2590
404 PONCHON Benoit 10:57:34 V1H - M 127 V1H 450
405 BOURROUILH Jerome 10:58:02 SEM - M 228 SEH 1241
406 ABADIE Henri 10:58:19 V2H - M 23 V2H 362
407 GATARD Fabrice 10:58:22 V1H - M 128 V1H 2626
408 GATARD Simon 10:58:24 SEM - M 229 SEH 659
409 MIGUEL David 10:58:31 V1H - M 129 V1H 2312
410 MAZEAU Gilles 10:58:32 SEM - M 230 SEH 445
411 DROUARD Marc 10:59:35 V1H - M 130 V1H 2187
412 JABY Nicolas 10:59:44 SEM - M 231 SEH 595
413 CHOLET Jean Marc 11:00:10 V1H - M 131 V1H 760
414 PLAUD Anthony 11:00:24 SEM - M 232 SEH 365
415 BLONDEAUX Yannick 11:00:27 SEM - M 233 SEH 436
416 RESSEGUIER Jerome 11:00:28 SEM - M 234 SEH 2120
416 BARDE Thierry 11:00:28 V1H - M 132 V1H 1768
418 LE NORMAND Gwenn 11:00:42 ESH - M 5 ESH 2128
419 POURADY Kian 11:00:47 V1H - M 133 V1H 488
420 MERCIRIS Fabien 11:00:52 SEM - M 235 SEH 48
421 DA SILVA Thomas 11:00:54 SEM - M 236 SEH 269
421 HERMAL Jerome 11:00:54 SEM - M 236 SEH 287
423 BIGO Jean Baptiste 11:01:03 SEM - M 238 SEH 295
424 BRISSIET Fabien 11:01:12 SEM - M 239 SEH 978
425 GUELTAS Guillaume 11:01:19 SEM - M 240 SEH 2926
426 GUICHARD Michel 11:01:20 V2H - M 24 V2H 546
427 TIXIER Valerie 11:02:07 V1F - F 5 V1F 341
427 RIBOULET Cedric 11:02:07 SEM - M 241 SEH 342
429 GEORGES Jean Francois 11:02:25 SEM - M 242 SEH 2357
430 MARTEAU Sylvain 11:03:27 V1H - M 134 V1H 453
431 BARADEL Emilien 11:03:46 SEM - M 243 SEH 2326
432 GABLIER Julien 11:04:13 SEM - M 244 SEH 1878
433 BRACHET Stanislas 11:04:51 SEM - M 245 SEH 1546
434 ROUMEAS Michel 11:05:04 V1H - M 135 V1H 693
435 VALMALLE Laurent 11:05:05 SEM - M 246 SEH 153
436 GIL Frederic 11:05:07 V1H - M 136 V1H 508
436 ZOMBAS Loup 11:05:07 SEM - M 247 SEH 479
438 LECOQ Mathieu 11:05:17 SEM - M 248 SEH 220
439 DURAND Benoit 11:05:23 V2H - M 25 V2H 590
440 BAIS Loic 11:05:38 SEM - M 249 SEH 1125
441 REGNIER Jerome 11:05:49 V1H - M 137 V1H 591
442 BOUTTE Michel 11:05:53 V1H - M 138 V1H 2297
443 JULES Mathieu 11:05:55 SEM - M 250 SEH 2001
444 GROSJEAN Sebastien 11:05:58 SEM - M 251 SEH 1526
445 HILL William 11:06:14 V1H - M 139 V1H 2798
446 LOUBIC Thomas 11:06:25 V1H - M 140 V1H 1668
447 BERTAZZONI Steeve 11:06:26 SEM - M 252 SEH 478
448 DELAGE Marion 11:06:32 SEF - F 20 SEF 2613
449 ESPARBES Florent 11:06:46 SEM - M 253 SEH 1887
449 HANIQUAUT Jean Henri 11:06:46 SEM - M 253 SEH 1943
451 CANO Julien 11:06:47 SEM - M 255 SEH 525
452 ENJALRIC Renaud 11:07:23 V1H - M 141 V1H 2362
453 PENNEC David 11:07:27 V1H - M 142 V1H 681
454 BONNAUDET Jerome 11:08:11 V1H - M 143 V1H 493
455 AGLAGHANIAN Jean Baptiste 11:08:27 V2H - M 26 V2H 2393
456 MIGNON Stephane 11:08:53 V1H - M 144 V1H 583
457 DOSSOT Jean Marc 11:09:04 V2H - M 27 V2H 594
458 DUFOUR Christophe 11:09:09 V1H - M 145 V1H 2485
459 MARTINET Eric 11:09:12 V1H - M 146 V1H 1933
460 LACLAUTRE Thierry 11:09:21 V1H - M 147 V1H 122
461 CAMERON Sarah 11:09:41 V1F - F 6 V1F 572
462 DELAFUYS Vincent 11:09:42 V1H - M 148 V1H 1009
463 MOLINIER Sebastien 11:09:50 SEM - M 256 SEH 1234
464 PERRIER Jerome 11:10:51 SEM - M 257 SEH 1497
465 LAMARCHE Patrick 11:11:13 V1H - M 149 V1H 2302
466 AUGLANS Aurelien 11:11:22 SEM - F 258 SEH 2860
467 ABDELLAOUI Olivier 11:11:27 V1H - M 150 V1H 1830
468 ETALON Fabien 11:11:31 V1H - M 151 V1H 2020
469 GUILLARD Cedric 11:11:35 V1H - M 152 V1H 2703
470 MASSON Fabrice 11:11:36 SEM - M 259 SEH 1237
471 MORENO Olivier 11:11:39 SEM - M 260 SEH 2967
472 LAYRE Cedric 11:11:52 SEM - M 261 SEH 227
473 CUGGIA Bruno 11:11:54 V2H - M 28 V2H 1732
474 VIRISSEL Thomas 11:11:56 SEM - M 262 SEH 360
474 ANDRE Nicolas 11:11:56 SEM - M 262 SEH 679
476 CHENEVAS Franck 11:12:06 V1H - M 153 V1H 313
477 RENAUX Laurent 11:12:32 V1H - M 154 V1H 2281
478 HAUDEBOURG Emmanuel 11:12:36 SEM - M 264 SEH 967
479 HODELINE Urbain 11:12:44 V1H - M 155 V1H 426
480 COTINEAU Charles 11:12:50 SEM - M 265 SEH 1593
481 CHReTIEN Pascal 11:13:00 V1H - M 156 V1H 299
482 SEUVE Julien 11:13:16 SEM - M 266 SEH 2830
483 CAZELLES Julien 11:13:18 SEM - M 267 SEH 382
484 GUIHENEUF Christophe 11:15:24 SEM - M 268 SEH 1989
485 DE POTTER Laurent 11:15:30 V1H - M 157 V1H 2608
486 BAYSE Samuel 11:15:46 V1H - M 158 V1H 2365
487 FERRE Michel 11:15:49 V2H - M 29 V2H 671
488 ROCHAS Agnes 11:15:52 SEF - F 21 SEF 2872
489 CARIOU Hugo 11:16:03 SEM - M 269 SEH 298
489 LE CHANU Jean Noel 11:16:03 V1H - M 159 V1H 628
491 BILL Francois 11:16:15 V1H - M 160 V1H 1327
492 CROUVIZIER Olivier 11:16:34 SEM - M 270 SEH 2118
493 DHORNE Cyril 11:16:43 SEM - M 271 SEH 492
494 BERLON Cedric 11:17:23 SEM - M 272 SEH 1603
495 CUSSOU Christophe 11:17:50 SEM - M 273 SEH 1199
496 LE CANN Frederic 11:17:59 SEM - M 274 SEH 1922
497 DE KESLING Ludovic 11:19:32 V1H - M 161 V1H 461
498 MANIERE Christophe 11:19:34 V1H - M 162 V1H 503
499 DELANNOY Nicolas 11:19:50 SEM - M 275 SEH 2906
500 RODRIGUEZ Jean Francois 11:19:51 SEM Team COMPEX M 276 SEH 729
501 BRUN Yves 11:20:05 SEM - M 277 SEH 1495
502 COUSTET Christophe 11:20:33 SEM - M 278 SEH 895
503 BESOMBES Thierry 11:20:34 SEM - M 279 SEH 896
504 BREMAUD Frederic 11:20:52 SEM - M 280 SEH 2575
505 NEIRINCKX Eric 11:21:29 V1H - M 163 V1H 317
506 RENAUX Frederic 11:21:43 V1H - M 164 V1H 2520
507 BROSSEAU Herve 11:22:08 SEM - M 281 SEH 534
507 GABORIAU Laurent 11:22:08 V1H - M 165 V1H 2963
509 MAGNIN Benoit 11:22:15 SEM - M 282 SEH 2788
510 LEROY Olivier 11:22:27 SEM - M 283 SEH 1658
511 OSELLA Christophe 11:22:39 V1H - M 166 V1H 1840
512 LARDY Stephane 11:22:45 V1H - M 167 V1H 1715
512 NEYRAC Jerome 11:22:45 V1H - M 167 V1H 2446
514 MARIE Regis 11:22:48 SEM - M 284 SEH 1963
515 PERRIER Franck 11:22:53 SEM - M 285 SEH 2554
516 PLUMEJEAU Pierre 11:22:55 SEM - M 286 SEH 294
517 CHEVALIER Aurelien 11:23:08 SEM - F 287 SEH 1087
518 RICHARD Laurent 11:23:17 V1H - M 169 V1H 1434
519 PINON Michael 11:23:33 SEM - M 288 SEH 282
520 POIGNANT Tony 11:23:36 SEM - M 289 SEH 1884
521 CHEVALIER Michael 11:23:42 SEM - M 290 SEH 1785
522 MONGE Peggy 11:23:55 SEF - F 22 SEF 2166
523 ARNAL Gilles 11:24:03 SEM - M 291 SEH 644
524 IBTIOUENE Karim 11:24:07 V1H - M 170 V1H 2184
525 BUGNON Jean Marc 11:24:12 V2H - M 30 V2H 712
526 PETOT Florian 11:24:25 SEM - M 292 SEH 857
527 GATARD Thierry 11:24:40 V1H - M 171 V1H 656
528 AYMARD Romain 11:25:02 V1H - M 172 V1H 316
529 PEPIN Frank 11:25:25 V1H - M 173 V1H 465
530 LE HIR Jerome 11:25:28 SEM - M 293 SEH 1790
531 BARDOUL Mickael 11:25:33 V1H - M 174 V1H 2293
532 SAUVINEAU Eric 11:25:38 V1H - M 175 V1H 318
533 AULAGNER Fabien 11:26:01 V1H - M 176 V1H 1100
534 PENNEQUIN Nicolas 11:26:07 SEM - M 294 SEH 2506
535 RIEBEL Jerome 11:26:19 SEM - M 295 SEH 1248
536 GALLOT Matthieu 11:26:22 SEM - M 296 SEH 616
537 MIRAMBEAU Laurent 11:27:07 SEM - M 297 SEH 1411
538 ANDRIEUX Romain 11:27:08 SEM - M 298 SEH 663
539 FReMONT William 11:27:10 V1H - M 177 V1H 447
540 BATISSE Christophe 11:27:17 V1H - M 178 V1H 2747
541 GIL Etienne 11:27:46 SEM - M 299 SEH 1556
542 CAPDEVILA Pascal 11:27:58 SEM - M 300 SEH 741
543 BRECHARD Thibaut 11:28:20 V1H - M 179 V1H 2202
544 BETOUS Jeremy 11:28:21 SEM - M 301 SEH 1148
545 STRECK Antoine 11:28:29 SEM - M 302 SEH 822
546 TAVEAU Christophe 11:28:32 V1H - M 180 V1H 354
547 AMEY Xavier 11:28:44 V1H - M 181 V1H 725
548 FOUBERT Frederic 11:28:51 SEM - M 303 SEH 1337
549 FORIO Frederic 11:29:19 V1H - M 182 V1H 631
550 JONCOUR Woody 11:29:23 SEM - M 304 SEH 1741
551 MONIER Sebastien 11:29:27 SEM - M 305 SEH 666
552 RITONDALE Sebastien 11:29:30 V1H - M 183 V1H 661
553 ANTIGA Fabrice 11:29:57 V1H - M 184 V1H 300
554 MAUPLIN Mikael 11:30:01 SEM - M 306 SEH 279
555 SZCZEPANIAK Frederic 11:30:28 SEM - M 307 SEH 1111
556 GODFRIN Bertrand 11:30:56 V1H - M 185 V1H 1970
557 VALETTE Romain 11:31:29 SEM - M 308 SEH 275
558 GUILBAUD Arnaud 11:31:58 SEM - M 309 SEH 1136
559 DELAUNAY Frederic 11:32:15 V1H - M 186 V1H 1303
560 DUCAT Eric 11:32:16 V1H - M 187 V1H 905
561 CLOQUIE Maxime 11:32:35 SEM - M 310 SEH 427
562 ENOUF Emmanuel 11:33:08 V1H - M 188 V1H 1183
563 MOIGNE Serge 11:33:11 SEM - M 311 SEH 1034
564 RENIER Yannick 11:33:17 SEM - M 312 SEH 1771
565 PINARD Stephane 11:33:33 SEM - M 313 SEH 486
566 BRUN Maxime 11:33:34 SEM - M 314 SEH 2684
567 ROUGIER Frederic 11:33:56 SEM - M 315 SEH 2905
568 BATIFOULIER Lionel 11:34:00 V1H - M 189 V1H 898
568 MICLOT Vincent 11:34:00 SEM - M 316 SEH 1216
570 JAUREGUIBERRY Guillaume 11:34:22 SEM - M 317 SEH 404
571 LOUPY Martial 11:34:23 V2H - M 31 V2H 1976
572 FOURNIER Fabrice 11:34:34 V1H - M 190 V1H 2765
573 NADAN Yannick 11:34:35 V1H - M 191 V1H 411
574 BUREL Fabrice 11:35:08 SEM - M 318 SEH 1502
575 GAUVRIT Mickael 11:35:09 SEM - M 319 SEH 1575
576 PONCET Jean Michel 11:35:29 V2H - M 32 V2H 734
577 ALIK Simon 11:35:43 SEM - M 320 SEH 683
578 DESTOMBES Francois 11:35:45 V1H - M 192 V1H 552
579 BOISSAVY Jean Philippe 11:35:55 SEM - M 321 SEH 1159
580 GEORGET Benjamin 11:36:14 V1H - M 193 V1H 2916
581 LOOS Christian 11:36:31 SEM - M 322 SEH 643
582 LAYOUR Fabrice 11:36:40 V1H - M 194 V1H 562
583 CHIRAUSSEL Fabrice 11:36:46 V1H - M 195 V1H 758
584 ARTUS Helene 11:36:55 V1F - F 7 V1F 2700
585 MESSIANT Frederic 11:37:02 V2H - M 33 V2H 2708
586 DEPRETZ Sebastien 11:37:04 SEM - M 323 SEH 723
587 NOMINE Nicolas 11:37:26 V1H - M 196 V1H 2451
587 LE FROUD Fabien 11:37:26 V1H - M 196 V1H 941
589 LASTECOUERES Stephane 11:37:52 V1H - M 198 V1H 654
590 CARDIN Christophe 11:38:18 SEM - M 324 SEH 329
591 HEBRARD Frederic 11:38:21 SEM - M 325 SEH 569
592 NICOLAS Isabelle 11:39:03 V1F - F 8 V1F 1545
593 RIQUIER Olivier 11:39:38 V1H TEAM KALENJI M 199 V1H 726
593 VIAL JAIME Philippe 11:39:38 V2H - M 34 V2H 2585
595 LAURENT Bernard 11:39:55 V2H - M 35 V2H 2095
596 BRILLOUX Patrick 11:39:57 V2H - M 36 V2H 2646
597 VARVOU Jean Louis 11:40:19 V3H - M 2 V3H 449
598 SCHROEDER Arnaud 11:40:22 SEM - M 326 SEH 374
599 CREPON Damien 11:40:24 SEM - M 327 SEH 325
600 CELAYA Angie 11:40:33 V1F - F 9 V1F 1641
601 POUJADE Thibault 11:40:34 SEM - M 328 SEH 2087
602 TINTET Fabien 11:40:38 SEM - M 329 SEH 1972
603 MARCAIS Laurent 11:40:42 V1H - M 200 V1H 690
604 FOURNAT Philippe 11:40:54 V2H - M 37 V2H 1516
605 SORS Michel 11:41:06 V1H - M 201 V1H 1167
606 TILLAUT Richard 11:41:10 SEM - M 330 SEH 2276
607 LE BOZEC Philippe 11:41:55 V1H - M 202 V1H 260
608 BOSSAN Emmanuel 11:42:00 V1H - M 203 V1H 2507
609 CAYRON Stephan 11:42:20 SEM - M 331 SEH 2694
610 DE SOUSA Jerome 11:42:25 SEM - M 332 SEH 296
610 OLLIVIER Laurent 11:42:25 V1H - M 204 V1H 1455
612 SIFFERT Eric 11:42:35 V1H - M 205 V1H 1582
613 KALICUN Kilian 11:42:37 SEM - M 333 SEH 677
614 HAURE Stephane 11:42:50 SEM - M 334 SEH 1278
615 JUILLAGUET Manon 11:42:59 SEF - F 23 SEF 2846
616 LINDBERG Gary 11:43:00 V1H - M 206 V1H 807
617 PELLETIER Romain 11:43:02 SEM - M 335 SEH 1797
618 FOI Fabrice 11:43:15 V1H - M 207 V1H 2736
619 LE NORMAND Christian 11:43:37 V2H - M 38 V2H 2127
620 FRANTZ Emmanuel 11:43:44 SEM - M 336 SEH 1651
621 BLANC Cyril 11:43:45 V1H - M 208 V1H 860
622 PILUDU Louis Pierre 11:43:47 SEM - M 337 SEH 1119
623 GARAND Jean Francois 11:43:48 V2H - M 39 V2H 1092
624 LE GOFF Yann 11:43:56 V1H - M 209 V1H 1966
625 DORILLE Jerome 11:44:02 SEM - M 338 SEH 425
626 ABDALLAH Yann 11:44:09 SEM - M 339 SEH 2076
627 LEMPEREUR Laurent 11:44:21 SEM - M 340 SEH 2121
628 PERRY Julien 11:44:29 SEM - M 341 SEH 2695
629 DEVILLE Philippe 11:45:03 V1H - M 210 V1H 2124
630 GALLO Stephane 11:45:05 SEM - M 342 SEH 343
631 COUEDEL Sebastien 11:45:09 SEM - M 343 SEH 469
632 BOUCHACOT Jerome 11:45:34 SEM - M 344 SEH 2229
632 BRICAUD Franck 11:45:34 SEM - M 344 SEH 386
634 GODEC Olivier 11:45:35 V1H - M 211 V1H 1220
635 REDON Karine 11:46:06 SEF - F 24 SEF 2877
636 PROTAIS David 11:46:15 SEM - M 346 SEH 707
637 PLANTIER Herve 11:46:23 V1H - M 212 V1H 2733
638 ROCHER Michele 11:46:32 V1F - F 10 V1F 2730
639 CHAPEAU Emmanuel 11:47:27 SEM - M 347 SEH 2645
640 PEREZ LIARTE Franck 11:47:49 V1H - M 213 V1H 633
641 DEMORTIERE Regis 11:48:03 V1H - M 214 V1H 259
642 COLANGE Alain 11:48:37 V1H - M 215 V1H 2918
643 EL OUARTI Karim 11:48:49 V1H - M 216 V1H 653
644 EVANO Emmanuel 11:49:22 V1H - M 217 V1H 460
645 TURCQ Brigitte 11:49:28 V1F - F 11 V1F 1330
646 CASTALDI Olivier 11:49:43 V1H TEAM KALENJI M 218 V1H 727
647 PERRIE Jordi 11:49:45 SEM - M 348 SEH 2721
648 LE ROUZIC Laurent 11:49:53 V1H - M 219 V1H 440
649 DOLET Loic 11:50:05 SEM - M 349 SEH 2479
650 SMART Fraser 11:50:08 V1H - M 220 V1H 809
651 ASSELBOURG Benjamin 11:50:31 SEM - M 350 SEH 943
652 GUILLEMONT Olivier 11:50:40 V1H - M 221 V1H 1955
653 MOTTET Francois 11:50:44 V1H - M 222 V1H 474
654 SAELENS Aurelien 11:51:05 SEM - F 351 SEH 2714
655 PEGE Patrick 11:51:13 V2H - M 40 V2H 2173
656 PERON Thomas 11:51:15 SEM - M 352 SEH 1141
657 GALICHET Sylvain 11:51:16 V1H - M 223 V1H 1366
658 LEDERMANN Sam 11:51:24 V1H - M 224 V1H 2716
658 RAULO Sebastien 11:51:24 V1H - M 224 V1H 724
660 LE GARREC Olivier 11:51:25 SEM - M 353 SEH 2936
661 LIVET Laurent 11:51:41 V1H - M 226 V1H 1089
661 LEFeVRE Laurent 11:51:41 SEM - M 354 SEH 2245
663 DA SILVA Joaquim 11:51:42 V1H - M 227 V1H 1223
664 SCHATAN Benjamin 11:51:57 SEM - M 355 SEH 348
665 GIRBELLE Julien 11:52:18 SEM - M 356 SEH 1754
666 LENCHANTIN Gerard 11:52:29 V3H - M 3 V3H 1919
667 CARRIERE Tony 11:52:38 V1H - M 228 V1H 402
668 GIRARD Loic 11:52:54 SEM - M 357 SEH 205
669 DUTHOO Lionel 11:53:03 V1H - M 229 V1H 614
670 DUCHESNE Bertrand 11:53:05 SEM - M 358 SEH 2300
671 BALLESTER Emmanuel 11:53:08 SEM - M 359 SEH 1055
672 STEFANELLI Didier 11:53:21 V2H - M 41 V2H 1291
673 VERDURAND Vincent 11:53:28 SEM - M 360 SEH 1188
674 DE GUIO Benoit 11:53:32 SEM - M 361 SEH 1765
675 PLUTNIAK Simon 11:53:34 SEM - M 362 SEH 2924
676 WAROUX Samuel 11:53:39 V1H - M 230 V1H 2625
677 MEYER Jerome 11:54:18 V1H - M 231 V1H 356
678 SEGUENI Mourade 11:54:28 SEM - M 363 SEH 1980
679 BOUTESOCQ Marie Laure 11:54:31 V1F - F 12 V1F 2560
680 ROUSSEAU Fabrice 11:54:33 V1H - M 232 V1H 410
681 BERNARD VILLAIN Sylvie 11:54:51 V2F - F 1 V2F 107
682 LEROY Pierre 11:54:54 V1F - F 13 V1F 1770
683 SOULARD David 11:54:56 SEM - M 364 SEH 1739
684 DEGUILHEM Muriel 11:55:41 V2F - F 2 V2F 2284
685 PADEL Jean Paul 11:55:52 V2H - M 42 V2H 2308
686 HEREDIA Adrien 11:55:56 SEM - M 365 SEH 2863
687 SCHUMACHER Valerie 11:56:03 V1F - F 14 V1F 602
688 SERIEYS Laurent 11:56:10 SEM - M 366 SEH 148
689 TRON Jean Francois 11:56:24 V1H - M 233 V1H 942
690 WELC Fabien 11:56:26 SEM - M 367 SEH 971
691 VERGEY Florent 11:56:47 SEM - M 368 SEH 1023
692 VANNIER Noel 11:56:48 V2H - M 43 V2H 2959
693 JACOB Nicolas 11:56:58 SEM - M 369 SEH 1069
694 RECHE Bruno 11:56:59 V1H - M 234 V1H 2023
695 CABY Raphael 11:57:00 V1H - M 235 V1H 1846
696 GADET Christophe 11:57:04 V1H - M 236 V1H 2192
697 BAUSSON Bertrand 11:57:08 V2H - M 44 V2H 2247
698 NEDELEC Jean Rene 11:57:35 V2H - M 45 V2H 2572
699 LE GALLOU Pierre Yves 11:57:38 V3H - M 4 V3H 2951
700 MADEC Laurent 11:57:39 SEM - M 370 SEH 2717
700 TARISSAN Julien 11:57:39 SEM - M 370 SEH 1104
702 PIPARD Johann 11:57:41 V1H - M 237 V1H 1684
703 VIROS Claudine 11:57:44 V1F - F 15 V1F 946
704 PERRIER Remi 11:58:03 SEM - M 372 SEH 252
705 JACQ Davy 11:58:08 SEM - M 373 SEH 1309
706 PALICOT David 11:58:09 V1H - M 238 V1H 2379
707 CAUCHOIX Thomas 11:58:11 SEM - M 374 SEH 2552
708 HAULE Julien 11:58:12 SEM - M 375 SEH 1849
709 PLEUTIN Andre 11:58:23 V2H - M 46 V2H 1499
710 PUPIER Samuel 11:58:29 V1H - M 239 V1H 201
711 BALEZ Bertrand 11:58:35 SEM - M 376 SEH 2051
712 TEXIER Carl 11:58:47 SEM - M 377 SEH 1259
713 TOSCANO Jerome 11:58:54 V1H - M 240 V1H 258
714 CHASSAGNETTE Franck 11:59:24 SEM - M 378 SEH 2783
715 FIOGER Fabrice 11:59:26 SEM - M 379 SEH 2340
716 BERBIGUIE Stephane 11:59:31 SEM - M 380 SEH 1632
717 BRUNET Jocelyn 11:59:37 V1H - M 241 V1H 1438
718 GOBIN Aurelien 11:59:39 SEM - F 381 SEH 2964
719 DOUVILLe Pascal 11:59:40 V2H - M 47 V2H 1341
720 CHOYER Martin 11:59:51 SEM - M 382 SEH 210
721 LAMBOLEY Emmanuel 12:00:09 SEM - M 383 SEH 2845
722 LECLERC Alexandre 12:00:31 SEM - M 384 SEH 2923
723 PINEAU Alain 12:00:36 V2H - M 48 V2H 1467
724 DELARUE Philippe 12:00:38 V2H - M 49 V2H 2739
725 PORTE Jeremie 12:00:51 SEM - M 385 SEH 604
726 BARBIER Alexandre 12:01:01 SEM - M 386 SEH 2063
726 DUMAS Francois 12:01:01 V1H - M 242 V1H 1821
728 GUILLOU Fabrice 12:01:04 V1H - M 243 V1H 1161
729 LAZIN David 12:01:15 SEM - M 387 SEH 2189
730 FRAYSSE Benoit 12:01:27 V1H - M 244 V1H 1563
731 ARBIB Nicolas 12:01:47 V1H - M 245 V1H 322
732 ESTEBAN Eric 12:02:20 V2H - M 50 V2H 358
733 POISSON Eric 12:02:27 V1H - M 246 V1H 2569
734 COMMEIRAS Guilhem 12:02:31 V1H - M 247 V1H 2839
734 GENDRY Yannick 12:02:31 V1H - M 247 V1H 2070
736 TEILLET Fabrice 12:02:52 SEM - M 388 SEH 1306
737 DOLO Christophe 12:02:56 V1H - M 249 V1H 2456
738 DUFOURCQ Johann 12:03:13 SEM - M 389 SEH 1544
739 METRO Joselito 12:03:14 SEM - M 390 SEH 1912
740 DUVALLET Mickael 12:03:21 SEM - M 391 SEH 274
740 BALIGOUT Christophe 12:03:21 SEM - M 391 SEH 2027
742 OUATELI Ismail 12:03:30 V1H - M 250 V1H 2426
743 BOUSQUET Franck 12:03:32 SEM - M 393 SEH 223
744 VINCLAIR Marc 12:03:40 SEM - M 394 SEH 2819
746 CROIZIER Magali 12:03:48 SEF - F 25 SEF 2953
747 BALAHACHI Rafion 12:03:52 SEM - M 396 SEH 660
748 LHOSTIS Yann 12:04:23 V1H - M 251 V1H 1941
749 CAUCHY Damien 12:04:48 SEM - M 397 SEH 1140
750 CANY Antoine 12:04:50 SEM - M 398 SEH 2137
751 CAILLET Cyril 12:05:07 V1H - M 252 V1H 1025
752 FEREZ Didier 12:05:10 V2H - M 51 V2H 624
753 PERTILE Franck 12:05:21 V1H - M 253 V1H 1346
754 COTINEAU Franck 12:05:31 V1H - M 254 V1H 2249
755 COURTIN Jeremy 12:05:37 SEM - M 399 SEH 2231
756 BLANCHARD Cyril 12:05:38 V1H - M 255 V1H 2805
757 DESSEVRES Bruno 12:06:25 V1H - M 256 V1H 1583
757 DEMENGE Sebastien 12:06:25 SEM - M 400 SEH 2804
759 SALLAN Pascal 12:06:27 V1H - M 257 V1H 2662
760 JOSQUIN Olivier 12:06:37 V2H - M 52 V2H 2726
761 REBOUX Gilles 12:06:47 V1H - M 258 V1H 2742
762 PLANET Emmanuel 12:07:13 V1H - M 259 V1H 584
763 CHAUVIRE Kevin 12:07:14 SEM - M 401 SEH 2423
764 BRAYCZEWSKI Vladimir 12:07:39 V2H - M 53 V2H 2296
765 LABRUNE David 12:08:10 SEM - M 402 SEH 433
765 BERNAT Eric 12:08:10 V1H - M 260 V1H 1061
767 LOUAZE David 12:08:43 SEM - M 403 SEH 2735
768 PIN Nicolas 12:08:44 V1H - M 261 V1H 475
769 ASTIER Pierre 12:08:45 V1H - M 262 V1H 1245
770 EDELIN Bruno 12:09:07 V1H - M 263 V1H 2176
771 TERNISIEN Ugo 12:09:27 SEM - M 404 SEH 387
772 FRESLON Patrice 12:09:34 V1H - M 264 V1H 2025
773 COCQ Charles Edmond 12:09:49 SEM - M 405 SEH 947
774 SAINT PAUL Remy 12:09:51 SEM - M 406 SEH 377
775 FABRY Gilles 12:10:04 V1H - M 265 V1H 501
776 ELISSALDE Gerard 12:10:10 V1H - M 266 V1H 1810
776 COURREGELONGUE Jerome 12:10:10 V1H - M 266 V1H 513
778 ROUX William 12:10:13 SEM - M 407 SEH 1295
779 SIMON DE KERGUNIC Thomas 12:10:14 V1H - M 268 V1H 2927
780 PEYRILLOUX Eric 12:10:15 V1H - M 269 V1H 1525
781 VANNINI Didier 12:10:17 V1H - M 270 V1H 291
782 FERRARI Francis 12:10:48 V1H - M 271 V1H 1290
783 GALLIOT Guillaume 12:10:56 V1H - M 272 V1H 172
784 EVENE Geoffroy 12:11:01 SEM - M 408 SEH 2698
784 PENHOET Stephane 12:11:01 V1H - M 273 V1H 2838
786 GARLANTEZEC David 12:11:13 SEM - M 409 SEH 2720
787 CLERBAUT Laurent 12:11:18 V2H - M 54 V2H 1819
788 PIGAT Jerome 12:12:13 V1H - M 274 V1H 2614
789 DALESME Arnaud 12:12:15 SEM - M 410 SEH 1008
790 AILLOUD Sebastien 12:12:16 V1H - M 275 V1H 1010
791 PERRIER Olivier 12:12:17 V1H - M 276 V1H 2425
792 PRIGENT Mathilde 12:12:20 SEM - M 411 SEH 2327
792 BRIAND Matthieu 12:12:20 SEM - M 411 SEH 2458
794 COUNIL Christian 12:12:28 V1H - M 277 V1H 2016
795 VERDURAND Camille 12:12:52 SEM - M 413 SEH 1007
796 PERNET Regis 12:13:16 V1H - M 278 V1H 853
797 FLECHE Manuel 12:13:29 V1H - M 279 V1H 471
798 DA SILVA Antonio 12:13:37 V2H - M 55 V2H 1986
799 BOURNY Pascal 12:13:42 V1H - M 280 V1H 1265
800 NURRA Stephane 12:13:44 V1H - M 281 V1H 869
801 SIMONNOT Sebastien 12:14:21 SEM - M 414 SEH 1021
802 LAINe Olivier 12:14:24 SEM - M 415 SEH 370
803 LE CORRE Steven 12:14:31 V1H - M 282 V1H 2234
804 BRICAUD Freddy 12:14:34 V1H - M 283 V1H 956
805 BAUDOIN Aurelien 12:14:36 SEM - F 416 SEH 1233
806 VALOT Vincent 12:14:42 V1H - M 284 V1H 2825
807 MARTINEZ Stephane 12:14:54 SEM - M 417 SEH 858
808 ALBERT Guillaume 12:14:58 SEM - M 418 SEH 1274
809 RAT Yohan 12:15:03 V1H - M 285 V1H 1273
810 COUTARD Philippe 12:15:25 SEM - M 419 SEH 1749
811 BANCHEREAU Fabrice 12:15:27 V1H - M 286 V1H 2204
811 GOALARD Xavier 12:15:27 V1H - M 286 V1H 999
811 SCHWEIG Stephane 12:15:27 V1H - M 286 V1H 1000
814 GARNIER Fabrice 12:15:34 SEM - M 420 SEH 468
815 ERNST Bruno 12:15:56 V1H - M 289 V1H 2461
816 BOUSQUET Patrice 12:16:00 V1H - M 290 V1H 1795
817 SABLAYROLLES Philippe 12:16:05 SEM - M 421 SEH 2968
818 JACQUET Laurent 12:16:09 V2H - M 56 V2H 1500
819 MITTELETTE Alain 12:16:30 V1H - M 291 V1H 1143
820 LE ROUX Pierre Yves 12:17:00 V1H - M 292 V1H 2670
821 LE BEUZE Arnaud 12:17:40 V1H - M 293 V1H 1692
822 BIDET Armel 12:17:48 V1H - M 294 V1H 335
823 WURTZ Christian 12:18:08 V2H - M 57 V2H 2505
824 ODONETTO Vincent 12:18:15 SEM - M 422 SEH 1131
825 BOURSE Dany Christophe 12:18:54 SEM - M 423 SEH 2125
826 AMOUYAL Alexandre 12:19:05 V1H - M 295 V1H 1203
827 MAILLARD Sebastien 12:19:21 SEM - M 424 SEH 1880
828 LAURENT Matthieu 12:20:01 SEM - M 425 SEH 505
829 CHABRILLAT Christophe 12:20:02 SEM - M 426 SEH 1139
830 STROBBE Frederic 12:20:04 V1H - M 296 V1H 2481
831 ROBINE Nicolas 12:20:19 SEM - M 427 SEH 1724
832 GUILLON Julien 12:20:26 SEM - M 428 SEH 2676
833 AUBREE Edith 12:20:30 V1F - F 16 V1F 2218
834 MARTIN Mickael 12:20:31 V1H - M 297 V1H 2523
835 POISSON Tony 12:20:34 SEM - M 429 SEH 1439
836 ROLLAND Pierre 12:20:44 V1H - M 298 V1H 2024
837 MICHAUD Jean Pierre 12:20:46 V1H - M 299 V1H 2457
838 JOYET Mathieu 12:20:49 SEM - M 430 SEH 2938
839 MANUEL MARTINEZ Jose 12:20:50 SEM - M 431 SEH 976
840 PERU Eric 12:21:11 V1H - M 300 V1H 1626
841 LE GRAS Nicolas 12:21:25 SEM - M 432 SEH 1836
842 RICHARD Benoit 12:21:29 SEM - M 433 SEH 1022
843 BARON Emmanuel 12:21:45 V1H - M 301 V1H 1623
844 MENGUS Claire 12:22:04 SEF - F 26 SEF 212
844 MENGUS Clement 12:22:04 SEM - M 434 SEH 211
846 LONGEON Bruno 12:22:09 V1H - M 302 V1H 2638
847 BOUCHET Thierry 12:22:31 V1H - M 303 V1H 539
848 BOUCHET Kevin 12:22:32 SEM - M 435 SEH 2465
849 GERMAIN Cedric 12:22:44 V1H - M 304 V1H 2429
850 AUFFRAY Bernard 12:23:02 V2H - M 58 V2H 413
851 LEMONNIER Laurent 12:23:05 SEM - M 436 SEH 1005
852 BONNEC Michel 12:23:13 V2H - M 59 V2H 762
853 MESSAGER Ludwig 12:23:39 SEM - M 437 SEH 2416
854 BUYER Gregory 12:23:50 SEM - M 438 SEH 2606
855 LE PAGE David 12:23:51 SEM - M 439 SEH 1845
856 TRELAT Sylvain 12:23:52 SEM - M 440 SEH 2022
857 FOUGEREUX Ch'nalex 12:23:55 SEM - M 441 SEH 1733
858 JAMET Philippe 12:23:58 V1H - M 305 V1H 1028
859 GASNIER Stephane 12:24:10 V1H - M 306 V1H 1570
860 MANIVEL Alain 12:24:20 V3H - M 5 V3H 2439
861 MARTIN Christophe 12:25:16 V2H - M 60 V2H 2946
862 GUIHO Vincent 12:25:38 V1H - M 307 V1H 2932
863 MARTIN Erwan 12:25:41 SEM - M 442 SEH 137
864 DAGET Francis 12:25:43 V2H - M 61 V2H 2395
865 GUEGAN Stephane 12:26:33 V1H - M 308 V1H 1110
866 GAYRAUD Gaetan 12:26:52 SEM - M 443 SEH 2488
866 LE GUILLY Ludovic 12:26:52 SEM - M 443 SEH 2740
868 SIMON Aurelien 12:27:07 SEM - F 445 SEH 1399
869 COMBALUZIER Christophe 12:27:13 V1H - M 309 V1H 165
869 JORAM Brian 12:27:13 SEM - M 446 SEH 983
871 VALBUENA Sebastien 12:27:14 SEM - M 447 SEH 2398
872 VERNHET Alain 12:27:57 V2H - M 62 V2H 2956
873 TEYCHENNE Xavier 12:28:11 SEM - M 448 SEH 1753
874 BERGER Thierry 12:28:12 V1H - M 310 V1H 1197
875 OUBRIER Jacques 12:28:18 V1H - M 311 V1H 2858
876 MORAT Murielle 12:28:27 V1F - F 17 V1F 1802
876 AUBRY David 12:28:27 V1H - M 312 V1H 1801
878 MAZEL Etienne 12:28:53 SEM - M 449 SEH 2745
879 KERROS Bruno 12:28:54 V1H - M 313 V1H 1221
880 LEVEQUE Paul 12:28:57 V2H - M 63 V2H 1033
881 MAZAROTTI Stephanie 12:29:00 V1F - F 18 V1F 564
881 RATAT Jean Marie 12:29:00 SEM - M 450 SEH 2406
883 CHAUVRIS Richard 12:29:01 V1H - M 314 V1H 1145
883 BOISSET Aziliz 12:29:01 SEF - F 27 SEF 2593
885 LEGRAND David 12:29:02 SEM - M 451 SEH 1814
886 CARPENTIER Thomas 12:29:03 SEM - M 452 SEH 674
887 RODRIGUEZ Sophie 12:29:04 SEF - F 28 SEF 675
887 HENON Julia 12:29:04 SEF - F 28 SEF 882
889 POINT Christian 12:29:07 V1H - M 315 V1H 1057
890 GONZALEZ Gilles 12:29:37 V1H - M 316 V1H 1367
890 AULANIER Arthur 12:29:37 ESH - M 6 ESH 2870
892 DELAFOND Lucien 12:30:05 V1H - M 317 V1H 2522
893 LABOURE Jeremie 12:30:13 V1H - M 318 V1H 1863
894 BLANCHARD David 12:30:36 SEM - M 453 SEH 466
895 BON Flavien 12:30:37 SEM - M 454 SEH 312
896 BLANCHET Vincent 12:31:25 V1H - M 319 V1H 2866
897 KONAN Kolia 12:31:28 SEM - M 455 SEH 736
898 GAUSSE Jean Pierre 12:31:43 V1H - M 320 V1H 516
899 TRIMOREAU Antonny 12:31:59 V1H - M 321 V1H 1340
900 SERIN Nicolas 12:32:00 SEM - M 456 SEH 1587
901 GUILLOU Simon 12:32:01 SEM - M 457 SEH 2119
902 LABARRE Edouard 12:32:08 SEM - M 458 SEH 804
903 TROPENAT Fabrice 12:32:26 SEM - M 459 SEH 221
903 LORIOT Arnaud 12:32:26 SEM - M 459 SEH 2543
905 DELAGE David 12:32:27 SEM - M 461 SEH 2542
906 BLANCO Raphael 12:32:29 V1H - M 322 V1H 1938
907 POY TARDIEU Ludovic 12:32:30 V1H - M 323 V1H 1993
908 SICARD Alexandre 12:32:32 V1H - M 324 V1H 2174
908 ROUSSEAU Florent 12:32:32 SEM - M 462 SEH 2867
910 MOSAKOWSKI Franck 12:32:36 V2H - M 64 V2H 1333
910 FLIEGEL Mylene 12:32:36 SEF - F 30 SEF 1196
912 ARROUAYS Herve 12:32:38 V1H - M 325 V1H 2668
913 STIPA Jerome 12:32:39 V1H - M 326 V1H 1250
914 LENHOF Eric 12:32:41 V1H - M 327 V1H 1321
914 LEGO Jerome 12:32:41 SEM - M 463 SEH 1402
916 BORDE Jerome 12:32:50 V1H - M 328 V1H 889
917 LE BITOUX David 12:32:52 V1H - M 329 V1H 2500
918 DECLERCK Alban 12:33:03 SEM - M 464 SEH 1328
919 DEMON Gregory 12:33:07 V1H - M 330 V1H 737
920 BLIN Pascal 12:33:16 V1H - M 331 V1H 2483
921 FOULON Jerome 12:33:34 SEM - M 465 SEH 2504
922 DISS Jean Philippe 12:33:41 SEM - M 466 SEH 1691
923 COURTEFOIX Sebastien 12:33:46 V1H - M 332 V1H 1109
924 TOSCANO Stephane 12:33:58 V1H - M 333 V1H 2690
925 MELAYE Jean Jacques 12:34:10 V2H - M 65 V2H 1559
926 BONNET Olivier 12:34:11 V1H - M 334 V1H 1476
927 AUZERIC Laurent 12:34:39 V1H - M 335 V1H 613
928 LE BOUEDEC Fabrice 12:34:46 V1H - M 336 V1H 2864
929 VALOTEAU Jonathan 12:34:51 SEM - M 467 SEH 2537
930 MAVIEL Olivier 12:34:55 SEM - M 468 SEH 2122
931 ADJADJ Philippe 12:34:59 SEM - M 469 SEH 455
932 BAUDOUX Gilles 12:35:13 V1H - M 337 V1H 1054
933 PASQUIE Jerome 12:35:14 SEM team EASYSPORT M 470 SEH 1106
934 BERNE Nicolas 12:35:17 SEM - M 471 SEH 1247
935 VILLEMAGNE Bernard 12:35:21 V2H - M 66 V2H 2843
936 GARREL Yoann 12:35:27 SEM - M 472 SEH 2417
937 CORNUAULT Pascal 12:35:43 V2H - M 67 V2H 2404
938 LE NOXAIC Ludovic 12:35:44 V1H - M 338 V1H 1752
939 THIERY Benoit 12:35:45 SEM - M 473 SEH 1638
940 CHAPON Ludovic 12:35:46 SEM - M 474 SEH 331
941 DELAMARRE Sebastien 12:35:50 SEM - M 475 SEH 2463
941 TAIX Joelle 12:35:50 SEF - F 31 SEF 1905
943 PELLEGRINI Pierre 12:36:07 SEM - M 476 SEH 1885
944 MUNDA Alain 12:36:20 V1H - M 339 V1H 2607
945 HANICOTTE Xavier 12:36:29 SEM - M 477 SEH 640
946 BECHELLI Patrick 12:36:39 V1H - M 340 V1H 1041
947 LEVEQUE Jean Philippe 12:37:08 V2H - M 68 V2H 2611
948 BREMAUD Frederic 12:37:32 V1H - M 341 V1H 637
949 DRANGE Geir 12:37:41 V1H - M 342 V1H 1068
950 MOYSAN Patrick 12:37:49 V1H - M 343 V1H 1982
951 SAPETA Francois 12:37:50 V1H - M 344 V1H 713
952 GRISON Arnaud 12:38:06 SEM - M 478 SEH 2912
953 DELOS Damien 12:38:09 SEM - M 479 SEH 1228
954 PERARD Guillaume 12:38:13 SEM - M 480 SEH 1067
955 BORDA Laurent 12:38:15 SEM - M 481 SEH 2047
956 VIDOU Stephane 12:38:19 V1H - M 345 V1H 1722
957 HAMON Pascal 12:38:33 V1H - M 346 V1H 2409
958 MARTEAU Jean Francois 12:38:36 V1H - M 347 V1H 393
958 BERTHY Jean Sebastien 12:38:36 V1H - M 347 V1H 1460
960 KERBRAT Pascal 12:38:38 V1H - M 349 V1H 1392
961 BICHAT Stephane 12:38:56 SEM - M 482 SEH 759
962 MAZURECK Apolline 12:38:59 SEF - F 32 SEF 254
963 NOGARE Bernard 12:39:01 V2H - M 69 V2H 1231
964 FOURNIER Pierre 12:39:04 SEM - M 483 SEH 1093
965 LENOIR Vincent 12:39:25 V1H - M 350 V1H 1557
966 GALANTINI Patrice 12:39:38 SEM - M 484 SEH 1599
967 CANDELLI Franklin 12:40:03 V1H - M 351 V1H 1329
968 MOUSSET Jean Christophe 12:40:09 V1H - M 352 V1H 2471
969 CHERE Nicolas 12:40:25 V1H - M 353 V1H 2618
970 BOURDON Serge 12:40:47 V3H - M 6 V3H 207
971 BARBE David 12:41:16 SEM - M 485 SEH 1414
972 BOGARD Alain 12:41:30 V2H - M 70 V2H 2206
973 BLANCHET Pierre 12:41:32 V1H - M 354 V1H 2211
974 FERRARD Sebastien 12:41:33 SEM - M 486 SEH 2000
975 MATHIEU Stephane 12:41:34 V1H - M 355 V1H 271
976 MALBRANT Christophe 12:41:35 V1H - M 356 V1H 1844
977 AUBOUIN Patrice 12:41:38 V1H - M 357 V1H 877
978 GROUT Steve 12:41:41 V1H - M 358 V1H 805
979 BERTHELOT Rene 12:41:54 V3H - M 7 V3H 648
980 FROIDEFOND Jean Louis 12:42:11 V1H - M 359 V1H 1809
981 BEAUDOIN Gregory 12:42:49 SEM - M 487 SEH 1648
982 DABROWSKI Didier 12:42:50 V1H - M 360 V1H 476
983 SUTRE Franck 12:42:52 V1H - M 361 V1H 1049
984 RICHER Guillaume 12:42:59 SEM - M 488 SEH 2424
985 PALAZY David 12:43:00 SEM - M 489 SEH 2962
986 CONSEIL Guillaume 12:43:02 SEM - M 490 SEH 514
987 LARRIEU Jean Marie 12:43:07 V1H - M 362 V1H 222
988 GUINARD Aubin 12:43:13 V1H - M 363 V1H 1036
989 COGET Thierry 12:43:14 V1H - M 364 V1H 1614
990 LIVERTOUX Bruno 12:43:19 V1H - M 365 V1H 2228
991 LE GONIDEC David 12:43:28 SEM - M 491 SEH 1961
992 MARZIOU Guillaume 12:43:34 SEM - M 492 SEH 1663
993 MILLIOT Karl 12:43:57 SEM - M 493 SEH 921
994 COLLARD Antoine 12:44:07 SEM - M 494 SEH 537
995 GUILLON Frederic 12:44:08 SEM - M 495 SEH 1459
996 GENDRE Olivier 12:44:09 V1H - M 366 V1H 1679
996 MAILLARD Nicolas 12:44:09 SEM - M 496 SEH 802
998 MENARD Arnaud 12:44:10 V1H - M 367 V1H 1788
999 LANGLET Thibaud 12:44:13 ESH - M 7 ESH 1335
1000 LANGLET Thierry 12:44:14 V2H - M 71 V2H 397
1001 BLANCHET Olivier 12:44:24 SEM - M 497 SEH 1667
1002 GILBERT Sebastien 12:44:36 V1H - M 368 V1H 2402
1003 MARGIEWES Sylvain 12:45:08 SEM - M 498 SEH 2142
1004 PIERINI Patrick 12:45:13 V1H - M 369 V1H 2223
1005 THURIER Henri 12:45:28 V2H - M 72 V2H 2467
1006 CHAUVIN Jerome 12:45:34 V1H - M 370 V1H 1813
1007 COUVREUR Laurent 12:46:00 V1H - M 371 V1H 2748
1008 GENTIL Jerome 12:46:53 SEM - M 499 SEH 388
1009 PIED Prenom 12:47:25 V2H - M 73 V2H 2549
1010 BONNEAU Luc 12:47:26 V2H - M 74 V2H 651
1011 BERTHELLEMY Johan 12:47:33 SEM - M 500 SEH 910
1012 PAINAULT Laurent 12:47:35 V1H - M 372 V1H 2725
1013 DE PRADA Gregory 12:47:38 SEM - M 501 SEH 834
1014 FETTAR Rachid 12:48:01 V1H - M 373 V1H 1776
1015 VIDAL Jonathan 12:48:03 SEM - M 502 SEH 2473
1016 MAZAS Nicolas 12:48:47 V2H - M 75 V2H 1108
1017 SCHMIDT Alexander 12:48:51 V1H - M 374 V1H 832
1018 MOURATILLE Alexandre 12:48:59 V1H - M 375 V1H 2786
1019 LECOMTE Florent 12:49:11 SEM - M 503 SEH 2283
1020 LASJAUNIAS Benoit 12:49:12 SEM - M 504 SEH 1889
1020 MALET Benoit 12:49:12 V1H - M 376 V1H 1755
1022 BREQUEVILLE Lionel 12:49:16 V1H - M 377 V1H 1915
1023 XOUAL Laurent 12:49:24 SEM - M 505 SEH 2768
1024 DEPREZ Franck 12:49:25 SEM - M 506 SEH 2762
1025 ALLAIRE Jean Claude 12:49:26 V1H - M 378 V1H 1275
1026 MAERTEN Gregory 12:49:29 V1H - M 379 V1H 2143
1027 PAGANINI Isabelle 12:49:40 V1F - F 19 V1F 2930
1028 SOULA Agnes 12:49:51 SEF - F 33 SEF 2644
1029 FOURMEAUX Tommy 12:49:55 SEM - M 507 SEH 2381
1030 THERY Franck 12:50:03 V1H - M 380 V1H 1222
1031 LAMNAOUAR Mustapha 12:50:19 SEM - M 508 SEH 1070
1032 L'HERMENIER Richard 12:50:32 V1H - M 381 V1H 871
1033 SUAU Francois 12:50:50 V2H - M 76 V2H 1466
1034 DIEULANGARD Marc 12:51:08 V2H - M 77 V2H 544
1034 FOUQUERAY Pascal 12:51:08 V1H - M 382 V1H 1737
1034 GUeRIF Christophe 12:51:08 V2H - M 77 V2H 810
1037 GOMEZ Olivier 12:51:09 SEM - M 509 SEH 1345
1038 BODIN Jerome 12:51:11 V1H - M 383 V1H 1789
1039 DOMINIQUE Gerard 12:51:19 V3H - M 8 V3H 1825
1040 LABANERE Claude 12:51:26 V1H - M 384 V1H 351
1041 DE SOUSA Georges 12:51:33 V1H - M 385 V1H 424
1042 LE DEZ Julien 12:51:37 SEM - M 510 SEH 2971
1043 LE FLOC'H Antony 12:51:38 V1H - M 386 V1H 1448
1044 CHABOREL Yves 12:51:57 V2H - M 79 V2H 2270
1045 ADANJO Joaquim 12:52:07 V2H - M 80 V2H 1198
1046 COGE Francois 12:52:08 SEM - M 511 SEH 1457
1047 CHEVALIER Cyril 12:52:20 V1H - M 387 V1H 2802
1048 AUFFRET Frederique 12:52:26 V1F - F 20 V1F 836
1049 LORTAL Franck 12:52:30 V1H - M 388 V1H 364
1050 LIeBART Stephanie 12:52:44 V1F - F 21 V1F 673
1051 ZMARIC Olivier 12:53:14 V2H - M 81 V2H 2764
1052 ARTERO Philippe 12:53:46 V1H - M 389 V1H 1539
1053 ROUGIER Stephane 12:53:55 V1H - M 390 V1H 1126
1054 MALIGNE Edouard 12:53:57 SEM - M 512 SEH 1084
1054 GUYOU Nicolas 12:53:57 V1H - M 391 V1H 851
1054 SOZEAU Julien 12:53:57 SEM - M 512 SEH 1160
1057 MONGARET Franck 12:54:00 SEM - M 514 SEH 894
1058 SUEUR Dominique 12:54:09 V1H - M 392 V1H 2067
1059 NOEL David 12:54:13 V1H - M 393 V1H 2484
1060 SAUVRY Stephane 12:54:49 V1H - M 394 V1H 2197
1061 JAMET Marc 12:54:57 SEM - M 515 SEH 506
1062 BUSSI Beatrice 12:55:56 V1F - F 22 V1F 1308
1063 LEGIRET Frederic 12:56:09 V1H - M 395 V1H 2978
1064 MAERTENS Thomas 12:56:17 SEM - M 516 SEH 2515
1064 KOLACZEK Ludovic 12:56:17 SEM - M 516 SEH 2386
1066 MAGNERON Xavier 12:56:41 V2H - M 82 V2H 841
1067 LEROY Pierre 12:56:45 V2H - M 83 V2H 1769
1068 CHASSERAY Olivier 12:56:53 V1H - M 396 V1H 1425
1069 JEAN Romain 12:57:01 SEM - M 518 SEH 763
1070 ROULON Jean Claude 12:57:02 V2H - M 84 V2H 1643
1071 FILET Emmanuel 12:57:19 V1H - M 397 V1H 2290
1072 CAUSSE Mathieu 12:57:24 SEM - M 519 SEH 2126
1073 FAVRESSE Gael 12:57:25 V1H - M 398 V1H 940
1073 MATHIEU Thomas 12:57:25 SEM - M 520 SEH 1112
1075 CHOMIENNE Stephane 12:57:37 SEM - M 521 SEH 418
1076 PECHEREAU Nicolas 12:58:03 V1H - M 399 V1H 2671
1077 FOUBERT Bruno 12:58:06 V1H - M 400 V1H 2418
1078 GUENANTIN Guillaume 12:58:07 SEM - M 522 SEH 2732
1079 DANEY Bertrand 12:58:19 V1H - M 401 V1H 1098
1080 MONTREUIL Nicolas 12:58:21 SEM - M 523 SEH 2566
1081 JAN Eric 12:59:13 V1H - M 402 V1H 2487
1082 ALCAZAR Emmanuel 12:59:19 SEM - M 524 SEH 1215
1083 GOSSART Jean Marc 12:59:20 SEM - M 525 SEH 2075
1084 CORDONNIER Remi 12:59:22 SEM - M 526 SEH 2382
1085 NNORUKA Samuel 12:59:34 V1H - M 403 V1H 2565
1086 GERMOND Philippe 12:59:49 V2H - M 85 V2H 1514
1087 BIGOT Romuald 12:59:57 V1H - M 404 V1H 1778
1088 RIOUX Jerome 12:59:58 SEM - M 527 SEH 2088
1089 RECOQUILLE Andre 13:00:00 V1H - M 405 V1H 2540
1090 PRAMAYON Renaud 13:00:01 SEM - M 528 SEH 2834
1091 PREVOST Thierry 13:00:02 V1H - M 406 V1H 1465
1092 REIS Celso 13:00:11 SEM - M 529 SEH 1031
1093 BOUJU Bertrand 13:00:28 V1H - M 407 V1H 1550
1094 PINTRAND Pascal 13:00:34 SEM - M 530 SEH 961
1094 DABRIGEON Philippe 13:00:34 V2H - M 86 V2H 1240
1096 BRUGUIER Olivier 13:00:51 V1H - M 408 V1H 1604
1097 PELOURSON Flavien 13:00:53 V1H - M 409 V1H 1528
1097 WENDLING Marc Ange 13:00:53 SEM - M 531 SEH 2450
1099 DURIEUX Patrick 13:01:07 V1H - M 410 V1H 2158
1100 POUSSART Michael 13:01:11 V1H - M 411 V1H 1918
1101 GAURIN Matthieu 13:01:13 SEM - M 532 SEH 2028
1102 ROUSSELOT Pierre 13:01:16 SEM - M 533 SEH 1287
1103 DUCHESNE Jean Christophe 13:01:50 V1H - M 412 V1H 680
1104 LE GOUSSE Max 13:01:51 V1H - M 413 V1H 2436
1105 LEBORGNE Frederic 13:01:54 SEM - M 534 SEH 2325
1106 BARBERO Sebastien 13:02:00 SEM - M 535 SEH 2059
1107 DEVAUX Eric 13:02:06 V1H - M 414 V1H 1464
1108 PAUMIER Pascal 13:02:13 V2H - M 87 V2H 1656
1109 GUITTON Pascal 13:02:15 V1H - M 415 V1H 2351
1110 KANNANE Karim 13:02:17 V1H - M 416 V1H 2475
1111 ROUS Gaetan 13:02:24 SEM - M 536 SEH 270
1112 PASQUIO Christophe 13:02:45 V1H - M 417 V1H 1775
1113 ANDRIEU Gregoire 13:02:47 SEM - M 537 SEH 843
1114 PERTHUE Jean Pierre 13:03:00 V2H - M 88 V2H 2661
1115 CARDONA Jean Marc 13:03:02 V1H - M 418 V1H 2696
1116 DRANGE Joanna 13:03:04 SEF - F 34 SEF 1064
1117 BRIDOUX Olivier 13:03:33 V1H - M 419 V1H 2243
1118 ANDERSEN Soeren 13:03:57 V2H - M 89 V2H 1501
1118 FOULONNEAU Pascal 13:03:57 V1H - M 420 V1H 1908
1120 BOURGEOIS Valentin 13:04:10 SEM - M 538 SEH 2842
1121 MORILLON Samuel 13:04:14 V1H - M 421 V1H 2612
1122 BOUANCHEAU Jean Francois 13:04:19 V1H - M 422 V1H 1422
1123 ROCCHETTI Xavier 13:04:26 V1H - M 423 V1H 600
1124 LAPOINTE Guy 13:04:45 V2H - M 90 V2H 1803
1125 ZEIMER Karine 13:04:50 V1F - F 23 V1F 2818
1126 BRESSON Jean Francois 13:04:52 SEM - M 539 SEH 2686
1127 BOUSQUET Sebastien 13:05:06 V1H - M 424 V1H 2890
1128 BLACHON Emilie 13:05:38 SEF - F 35 SEF 2797
1129 TALBOT Olivier 13:05:39 V1H - M 425 V1H 2813
1130 CORBA Sebastien 13:05:52 SEM - M 540 SEH 1052
1131 FOURNIER Thierry 13:05:59 V1H - M 426 V1H 1083
1132 SERRIL Nadege 13:06:01 SEF - F 36 SEF 1218
1133 SAPeDE Nicolas 13:06:24 SEM - M 541 SEH 1481
1134 DUMONTET Benoit 13:06:26 V1H - M 427 V1H 994
1135 PERON Matthieu 13:06:33 V1H - M 428 V1H 2428
1136 MARCOURT Geoffray 13:06:38 SEM - M 542 SEH 2493
1137 COUSIN Helene 13:07:29 SEF - F 37 SEF 1735
1138 DORE Anthony 13:08:08 SEM - M 543 SEH 914
1138 GRIFFON Yvon 13:08:08 V1H - M 429 V1H 920
1140 GUSTIN Eddy 13:08:14 V1H - M 430 V1H 817
1141 SUTTER Francis 13:10:38 V1H - M 431 V1H 2275
1142 HOUVENAEGHEL Manuel 13:10:39 V1H - M 432 V1H 2664
1143 BEL Jean Francois 13:10:53 SEM - M 544 SEH 833
1144 PIERRE Cedric 13:11:21 SEM - M 545 SEH 1992
1145 PINEAU Fabrice 13:11:32 V1H - M 433 V1H 1391
1146 JAMONNEAU Christophe 13:11:41 SEM - M 546 SEH 2225
1147 RAISON Michel 13:11:48 V1H - M 434 V1H 1429
1148 LIAIGRE Christian 13:11:50 V2H - M 91 V2H 2580
1149 PERIE Paul 13:12:34 SEM - M 547 SEH 801
1150 CATTEAU Nicolas 13:12:37 SEM - M 548 SEH 924
1151 MERCIER Olivier 13:12:59 V1H - M 435 V1H 2627
1152 YOU Philippe 13:13:15 V1H - M 436 V1H 1056
1153 HORDE Emilie 13:13:24 SEF - F 38 SEF 1870
1154 SAINT PAUL Benoit 13:13:36 SEM - M 549 SEH 1263
1154 LEBLANC Philippe 13:13:36 V1H - M 437 V1H 1812
1156 TONSO Yvan 13:13:43 V1H - M 438 V1H 2637
1157 JANVIER Cyrille 13:13:45 SEM - M 550 SEH 2810
1158 BEQUART Sebastien 13:13:46 SEM - M 551 SEH 2058
1159 THYL Michael 13:13:50 SEM - M 552 SEH 2043
1160 RENAUT Stephane 13:13:51 SEM - M 553 SEH 510
1161 SOUQUET Michel 13:14:52 V3H - M 9 V3H 2190
1162 COULON Remi 13:14:53 V2H - M 92 V2H 216
1163 QUEYROI Yoann 13:15:09 SEM - M 554 SEH 1360
1164 LEROY Cyril 13:15:10 SEM - M 555 SEH 2105
1165 DIVET Frederic 13:15:11 V1H - M 439 V1H 1589
1166 MCFARLANE Ian 13:15:25 V1H - M 440 V1H 2955
1167 NOAILHAC Bruno 13:15:43 V1H - M 441 V1H 2039
1168 TEYSSIER Marcel 13:16:06 V3H - M 10 V3H 2419
1169 LANGLOIS Benjamin 13:16:09 SEM - M 556 SEH 1721
1170 BAROIN Pascal 13:16:12 V1H - M 442 V1H 1313
1171 BOTTO ROSSA Philippe 13:16:21 V1H - M 443 V1H 2163
1171 BARON Philippe 13:16:21 V1H - M 443 V1H 2254
1173 HINGANT Yvan 13:16:22 V1H - M 445 V1H 2145
1174 BAZIN Vincent 13:16:23 SEM - M 557 SEH 1988
1175 ROBERT Frederic 13:16:24 V1H - M 446 V1H 1985
1176 WENGERT Christophe 13:16:26 V1H - M 447 V1H 1974
1176 LEVILLAIN Amelie 13:16:26 SEF - F 39 SEF 2376
1178 CHENU Cedric 13:16:27 SEM - M 558 SEH 1286
1178 MARTZ Didier 13:16:27 V1H - M 448 V1H 2692
1180 MOQUET Manuel 13:16:28 SEM - M 559 SEH 2907
1181 CHARTIER Ludovic 13:16:31 V1H - M 449 V1H 2354
1182 TEISSERE Gilles 13:16:33 V1H - M 450 V1H 1978
1183 LEDOLLEY Christophe 13:16:36 V2H - M 93 V2H 2680
1184 FACKEURE Remi 13:16:43 SEM - M 560 SEH 820
1185 PREVOST Philippe 13:16:50 V2H - M 94 V2H 1463
1185 DURY Alexy 13:16:50 SEM - M 561 SEH 893
1187 HAMONOU Romain 13:16:51 SEM - M 562 SEH 1745
1188 FERNANDES Daniel 13:17:07 V1H - M 451 V1H 2497
1188 SEBILEAU Elisabeth 13:17:07 V1F - F 24 V1F 2841
1190 DUMINY Gilles 13:17:10 V1H - M 452 V1H 2062
1191 PACE Vincent 13:17:24 SEM - M 563 SEH 2363
1192 BOURGUENOLLE Pierre Arnaud 13:17:39 SEM - M 564 SEH 2823
1193 SERRA Nicolas 13:17:42 SEM - M 565 SEH 2891
1194 DESCHINS Thierry 13:17:52 V2H - M 95 V2H 717
1195 GUELENNOC Christine 13:18:05 V2F - F 3 V2F 900
1196 BOULIONG Fabrice 13:18:07 V1H - M 453 V1H 2019
1196 GUELENNOC Gilles 13:18:07 V1H - M 453 V1H 911
1198 LARCHE Bruno 13:18:09 V1H - M 455 V1H 2091
1199 REINE Rodrigue 13:18:10 V2H - M 96 V2H 2280
1200 BELET Jean Claude 13:18:11 V2H - M 97 V2H 32
1201 PROVOST Mickael 13:18:12 SEM - M 566 SEH 1664
1202 HECKMANN Christian 13:18:14 V1H - M 456 V1H 1855
1203 CHARTEAU Bastien 13:18:19 SEM - M 567 SEH 1451
1204 TABAREAU Nicolas 13:18:20 SEM - M 568 SEH 2237
1204 MIOTTO Anthony 13:18:20 SEM - M 568 SEH 2929
1206 BIZOT etienne 13:18:22 SEM - M 570 SEH 1300
1207 LE BRETON Christophe 13:18:26 V2H CLUB ESPRIT TRAIL ANJOU M 98 V2H 748
1208 LAMBIN Laurent 13:18:27 V1H - M 457 V1H 338
1209 DELAUNEY Pascal 13:18:28 V2H - M 99 V2H 1736
1209 VIAUD Laurent 13:18:28 V1H - M 458 V1H 747
1209 MARIE Eric 13:18:28 V1H - M 458 V1H 2570
1212 HORDE Samuel 13:18:29 SEM - M 571 SEH 1869
1213 TALBOURDEL Yann 13:18:30 V1H - M 460 V1H 2949
1214 JOBARD Francois 13:18:31 SEM - M 572 SEH 1385
1214 CINTUREL Bruno 13:18:31 V3H - M 11 V3H 2339
1214 NONY Gregory 13:18:31 V1H - M 461 V1H 1103
1217 MEULAN Clement 13:18:34 SEM - M 573 SEH 1461
1218 CYNA Bernard 13:18:37 V2H - M 100 V2H 1805
1219 PLOQUIN Nicolas 13:18:39 SEM - M 574 SEH 462
1220 LE FLOCH Jean Luc 13:18:40 V1H - M 462 V1H 2752
1221 ARBOGAST Laurent 13:18:46 V1H - M 463 V1H 1257
1222 DENIZOU Michel 13:19:04 SEM - M 575 SEH 2666
1222 BRAULT Christian 13:19:04 V2H - M 101 V2H 2513
1222 HALIMI Karim 13:19:04 V1H - M 464 V1H 2514
1225 ESPAGNET Thierry 13:19:05 V1H - M 465 V1H 2897
1226 GUERIN Julien 13:19:09 SEM - M 576 SEH 1343
1227 BARRAL Jean Luc 13:19:32 V1H - M 466 V1H 1344
1228 ROBERT William 13:20:16 SEM - M 577 SEH 2441
1229 ECHASSERIAU Jacques 13:20:19 V3H - M 12 V3H 2367
1229 SCHMIDT Yves 13:20:19 V1H - M 467 V1H 1085
1231 CHOMETTON Yohann 13:20:21 SEM - M 578 SEH 2663
1232 SERET Pierre 13:20:24 V2H - M 102 V2H 2185
1233 BEAUMOND Matthieu 13:20:25 V1H - M 468 V1H 2414
1234 PIQUET Christophe 13:20:27 V1H - M 469 V1H 1673
1235 DO CARMO Frederic 13:21:02 SEM - M 579 SEH 844
1236 GAYARD Herve 13:21:10 V1H - M 470 V1H 1529
1237 GASTE Anthony 13:22:01 SEM - M 580 SEH 2460
1238 PINcON Frederic 13:22:08 SEM - M 581 SEH 847
1239 SANCHEZ Pierre 13:22:28 V1H - M 471 V1H 2582
1240 POUDEVIGNE Frederic 13:22:30 V1H - M 472 V1H 2770
1241 PETIT Nicolas 13:22:41 V1H - M 473 V1H 880
1241 RUYTOOR Perrine 13:22:41 SEF - F 40 SEF 1950
1243 SAVAREAU Joel 13:22:52 V1H - M 474 V1H 1178
1243 CLEMENT Marc 13:22:52 V1H - M 474 V1H 2334
1245 BALOCHE Cedric 13:23:02 SEM - M 582 SEH 2925
1245 GRENOUILLET Julien 13:23:02 SEM - M 582 SEH 908
1247 SOUQUET Jean Baptiste 13:23:33 V1H - M 476 V1H 1815
1248 GEIBIG Bruno 13:23:43 V1H - M 477 V1H 2083
1248 GUILLEMETTE Eric 13:23:43 V2H - M 103 V2H 2089
1250 DANNECKER Gilles 13:24:30 V1H - M 478 V1H 1353
1251 ROY Tony 13:24:32 SEM - M 584 SEH 1610
1252 LAINE Stephane 13:24:45 V1H - M 479 V1H 253
1253 TRUILHe Christian 13:24:46 V2H - M 104 V2H 2584
1254 LANG Jean Francois 13:26:01 SEM - M 585 SEH 1999
1255 LEBRET Philippe 13:26:04 V2H - M 105 V2H 2038
1256 COURONNEL Juliette 13:26:05 V1F - F 25 V1F 814
1257 MARTIN Pierre 13:26:12 V1H - M 480 V1H 1394
1258 DUMAS Emile 13:26:15 V1H - M 481 V1H 2655
1259 LEVENT David 13:26:24 V1H - M 482 V1H 2292
1260 PERROT Yves 13:26:25 V1H - M 483 V1H 1468
1261 BONDIEU Christophe 13:27:06 V1H - M 484 V1H 2950
1261 COZANNET Pierre 13:27:06 SEM - M 586 SEH 1851
1263 RELIANT Pascal 13:27:07 V2H - M 106 V2H 2945
1263 CALLENS Julien 13:27:07 SEM - M 587 SEH 2674
1265 SAURINE Raymond 13:27:47 SEM - M 588 SEH 881
1266 HUGUET Benoit 13:28:08 SEM - M 589 SEH 1180
1267 METAIRIE Jerome 13:28:10 V1H - M 485 V1H 293
1267 MEULAN Nicolas 13:28:10 SEM - M 590 SEH 923
1269 TOURILLON Melanie 13:28:13 SEF - F 41 SEF 1073
1270 PINEAU Sebastien 13:28:43 SEM - M 591 SEH 470
1271 MARINEAU Ludovic 13:29:43 V1H - M 486 V1H 1866
1272 DEMONCEAUX Cedric 13:29:59 SEM - M 592 SEH 2375
1273 BIANCHI Gilles 13:30:09 V2H - M 107 V2H 1152
1274 BLOTTIERE Maxime 13:30:54 SEM - M 593 SEH 1831
1274 MEZARD Fabien 13:30:54 SEM - M 593 SEH 2792
1276 MARTIN Manuel 13:31:09 V1H - M 487 V1H 1657
1277 BERTOLLE Stephane 13:31:10 SEM - M 595 SEH 1738
1278 THIeBAULT Boris 13:31:11 SEM - M 596 SEH 2539
1279 LAATIAOUI Najib 13:31:12 SEM - M 597 SEH 2947
1280 MICHAEL Girmay 13:32:11 V2H - M 108 V2H 2264
1281 SAVARIT Alain 13:32:18 V2H - M 109 V2H 1037
1282 BERNE Franck 13:32:20 V1H - M 488 V1H 1462
1283 VERDIER Pascal 13:32:23 V2H - M 110 V2H 984
1284 BLOU Sylvain 13:32:39 SEM - M 598 SEH 948
1285 LEQUEUX Fabrice 13:32:44 SEM - M 599 SEH 953
1286 PALLOURE Jean Francois 13:33:11 V1H - M 489 V1H 2777
1287 RIDEL Marc 13:33:27 V1H - M 490 V1H 1799
1288 MORANDIN Albert 13:34:13 V2H - M 111 V2H 203
1289 LEGER Stephane 13:34:38 SEM - M 600 SEH 2157
1290 HUBERT Marc 13:34:46 V1H - M 491 V1H 980
1291 DUVAL Erwan Vincent 13:34:53 SEM - M 601 SEH 1493
1292 BELESTA LABOURDETTE Pascal 13:35:13 V1H - M 492 V1H 2168
1293 BAUDET Stephane 13:35:36 V1H - M 493 V1H 2311
1294 MORELON Xavier 13:35:51 SEM - M 602 SEH 1744
1295 BROSSARD Camille 13:35:52 SEM - M 603 SEH 2177
1296 ROBIC Jerome 13:35:53 V1H - M 494 V1H 1212
1296 CLEDELIN Herve 13:35:53 V1H - M 494 V1H 1151
1298 AUBRY Jose 13:36:11 V1H - M 496 V1H 2410
1299 LEGENDRE Christophe 13:36:32 V1H - M 497 V1H 1374
1300 VIARDOT Laurent 13:36:48 V1H - M 498 V1H 2235
1301 PHILIPPE Antoine 13:37:11 V1H - M 499 V1H 2482
1302 LAM Chau 13:37:14 SEM - M 604 SEH 975
1303 LAM Chi Kien 13:37:15 SEM - M 605 SEH 987
1303 LEVILLAIN Guillaume 13:37:15 SEM - M 605 SEH 2647
1305 HOUSSIN Christophe 13:37:17 V1H - M 500 V1H 1407
1305 ARNOULT Yannick 13:37:17 V1H - M 500 V1H 1014
1307 BARBI Stephane 13:37:26 V1H - M 502 V1H 2731
1308 BRETON Christophe 13:37:33 V1H - M 503 V1H 2440
1309 DAUXERRE Eric 13:38:13 V1H - M 504 V1H 2031
1310 GOULET Michel 13:38:37 V1H - M 505 V1H 1661
1311 PFEFFER Frederic 13:38:48 V1H - M 506 V1H 1312
1311 AMSELLEM Claire 13:38:48 SEF - F 42 SEF 1581
1313 LEMAITRE Stephane 13:38:52 SEM - M 607 SEH 812
1314 JOLIVET David 13:39:02 SEM - M 608 SEH 1029
1315 DHAINE Olivier 13:39:03 SEM - M 609 SEH 2556
1316 HERAULT Vincent 13:39:35 SEM - M 610 SEH 1833
1317 LIMARE Maud 13:39:37 SEF - F 43 SEF 314
1317 STIEN Eric 13:39:37 V2H - M 112 V2H 2502
1319 GERVAIS Benoit 13:39:39 SEM - M 611 SEH 1060
1320 ALIBERT Lucien 13:39:40 SEM - M 612 SEH 883
1320 FONTAINE Thierry 13:39:40 SEM - M 612 SEH 2621
1322 MEUNIER Benilde 13:39:42 V1H - M 507 V1H 2965
1323 CASANOVA Jean Christophe 13:39:50 V1H - M 508 V1H 2227
1324 DEMOGET Valerie 13:40:03 V2F - F 4 V2F 414
1325 DENIS Didier 13:40:05 V2H - M 113 V2H 927
1326 MONTEYRIMARD Alain 13:40:08 V1H - M 509 V1H 2220
1327 SAUNAL Olivier 13:40:09 SEM - M 614 SEH 1509
1328 MARTINEZ Christophe 13:40:12 SEM - M 615 SEH 1194
1329 CARBONNIER Gregory 13:40:33 SEM - M 616 SEH 2553
1329 RIGAL Jean Francois 13:40:33 SEM - M 616 SEH 2558
1331 FILLAUDEAU Olivier 13:40:39 V1H - M 510 V1H 1430
1332 CHAMBERLAND Gregory 13:40:47 SEM - M 618 SEH 2524
1333 CAVROT Mireille 13:40:57 V1F - F 26 V1F 2082
1334 DA COSTA Sebastien 13:40:59 SEM - M 619 SEH 2966
1335 DEL GUIDICE Jean Pierre 13:41:02 V2H - M 114 V2H 1408
1336 FERREIRA Adelino 13:41:03 V1H - M 511 V1H 1709
1337 DOLIN Camille 13:41:04 SEM - M 620 SEH 2337
1338 MAZZUCATO Damien 13:41:24 SEM - M 621 SEH 2779
1339 HOUOT Martial 13:41:31 V2H - M 115 V2H 2728
1340 PUAUD Christophe 13:41:53 V1H - M 512 V1H 1937
1341 RAVEL Florence 13:41:54 SEF - F 44 SEF 1200
1342 MONNY Emeric 13:41:57 SEM - M 622 SEH 2149
1342 DEPIERREUX Romuald 13:41:57 V1H - M 513 V1H 2086
1344 MONNY Maxime 13:41:59 SEM - M 623 SEH 2099
1345 CHRISTINE VIGOT Marie 13:42:00 V2F - F 5 V2F 1794
1346 VIGOT Hubert 13:42:02 V2H - M 116 V2H 1793
1347 LAMOTHE Serge 13:42:09 V1H - M 514 V1H 2167
1348 KAMARA Philippe 13:42:11 V1H - M 515 V1H 2109
1349 CHOLET David 13:42:20 V1H - M 516 V1H 1266
1350 LECLERC Philippe 13:42:21 SEM - M 624 SEH 2521
1351 BOOM Sander 13:42:24 V1H - M 517 V1H 2928
1352 CARRADORE Anthony 13:42:27 SEM - M 625 SEH 2267
1353 RAIMBAULT Francois 13:42:30 V2H - M 117 V2H 2799
1354 BARBIER Alain 13:42:39 V2H - M 118 V2H 2548
1354 CALMETTES Pierre 13:42:39 V2H - M 118 V2H 2546
1356 MARCHASSON Lionel 13:43:08 V1H - M 518 V1H 1706
1357 TEMPEREAU Fred 13:43:11 V1H - M 519 V1H 2536
1358 CUVELLER Christophe 13:43:14 V1H - M 520 V1H 1590
1359 ALLAIN Gael 13:43:18 V1H - M 521 V1H 336
1360 HADDAD Nebila 13:43:19 V1F - F 27 V1F 1142
1361 CADOT Karim 13:43:21 V1H - M 522 V1H 1431
1362 HERBILLON Romain 13:43:24 V1H - M 523 V1H 2319
1363 DELAPORTE Bruno 13:44:12 V1H - M 524 V1H 829
1364 DELAPORTE Mathieu 13:44:15 ESH - M 8 ESH 816
1365 MARTY Pascal 13:44:17 V1H - M 525 V1H 1968
1365 DAUX Alexandre 13:44:17 SEM - M 626 SEH 2844
1367 PROUTEAU Vanessa 13:44:20 SEF - F 45 SEF 620
1368 BEMELMANS Jean Francois 13:44:24 V1H - M 526 V1H 866
1369 AYRAL Cris 13:44:25 SEM - M 627 SEH 228
1369 MATTEI Cesar 13:44:25 V1H - M 527 V1H 897
1371 BARAJA Eric 13:44:27 V1H - M 528 V1H 1713
1372 SERVOZ William 13:44:28 SEM - M 628 SEH 1729
1373 CHAUVET Samuel 13:44:29 SEM - M 629 SEH 2052
1374 LAPORTE Daniel 13:44:32 V2H - M 120 V2H 1520
1375 LE DORZE Jacques 13:44:34 V1H - M 529 V1H 2832
1376 TALEC Guen 13:44:35 V1H - M 530 V1H 1390
1377 MAZAROTTI Jean Louis 13:44:36 V1H - M 531 V1H 2335
1378 VERGNAUX Nicolas 13:44:42 SEM - M 630 SEH 2077
1379 FOULQUIER Laurent 13:44:46 V1H - M 532 V1H 357
1379 ROCHE David 13:44:46 V1H - M 532 V1H 1653
1381 VIGNAUD Marc 13:44:48 V2H - M 121 V2H 1019
1381 ANCELIN Arnaud 13:44:48 V1H - M 534 V1H 2595
1383 COUTREAU Julien 13:44:50 SEM - M 631 SEH 1561
1384 LAURENT Audrey 13:44:55 SEF - F 46 SEF 1013
1385 MENGUY Valerie 13:45:11 V1F - F 28 V1F 2036
1386 MARTIN Jean Paul 13:45:12 V3H - M 13 V3H 2868
1387 LECORNe Stephane 13:45:25 SEM - M 632 SEH 1681
1388 DEMELLIER Matthieu 13:45:32 V1H - M 535 V1H 2186
1389 RYCKEWAERT Xavier 13:45:34 SEM - M 633 SEH 863
1390 BERRY David 13:46:00 SEM - M 634 SEH 2004
1390 BINAS Renaud 13:46:00 SEM - M 634 SEH 2577
1392 PAQUEREAU Frederic 13:47:16 V1H - M 536 V1H 1063
1393 ARAGON Franck 13:47:21 SEM - M 636 SEH 2917
1394 MAGIS Romuald 13:47:25 SEM - M 637 SEH 2321
1395 BIZOT Sebastien 13:48:32 V1H - M 537 V1H 1637
1396 BOUTIN Jean Noel 13:48:35 V1H - M 538 V1H 1703
1397 SAINT VANNE Eric 13:48:49 V1H - M 539 V1H 2139
1398 BONNET Eric 13:48:53 SEM - M 638 SEH 1817
1399 MALCOTTE Jerome 13:48:55 SEM - M 639 SEH 2427
1400 DERVILLeE David 13:49:04 SEM - M 640 SEH 2476
1401 DEBEAURAIN Florent 13:49:10 V1H - M 540 V1H 1702
1402 COMBY Mathieu 13:49:36 SEM - M 641 SEH 2336
1402 PELTIER Benoit 13:49:36 SEM - M 641 SEH 617
1404 MASTOUNIN Laurent 13:49:37 V1H - M 541 V1H 1596
1405 LE BRECH Yoann 13:49:50 SEM - M 643 SEH 875
1406 REMEN Philippe 13:50:09 V1H - M 542 V1H 2064
1407 DOLAY Julien 13:51:05 SEM - M 644 SEH 2079
1407 GAUTHIER Francois 13:51:05 V1H - M 543 V1H 1700
1409 BUROT Fabrice 13:51:26 SEM - M 645 SEH 2006
1410 GARREAU Sylvie 13:51:37 V1F - F 29 V1F 1861
1410 VIDAL Julien 13:51:37 SEM - M 646 SEH 2848
1412 MOAL Pierre Yvon 13:51:41 V1H - M 544 V1H 2262
1413 BOUTRON Nicolas 13:51:47 SEM - M 647 SEH 511
1413 MOQUET Bertrand 13:51:47 V2H - M 122 V2H 208
1415 LELARGE Nathalie 13:51:50 SEF - F 47 SEF 722
1416 LELARGE Vincent 13:51:51 SEM - M 648 SEH 721
1417 CARTEAUD Richard 13:51:58 V1H - M 545 V1H 1417
1418 PONS Jean Luc 13:52:01 V1H - M 546 V1H 2032
1419 AUGE Antoine 13:52:05 V1H - M 547 V1H 2591
1420 CHANTAL EMONIDES Marie 13:52:06 V1F - F 30 V1F 99
1421 LARBRE David 13:52:50 V1H - M 548 V1H 1404
1422 LARBRE Michael 13:52:55 V1H - M 549 V1H 1412
1423 HUBERT Sebastien 13:53:05 V1H - M 550 V1H 1807
1424 BARELLA Vincent 13:53:49 V2H - M 123 V2H 2352
1425 MONACO Yannick 13:53:50 V1H - M 551 V1H 2707
1426 VAILLANT Jean Marie 13:53:51 SEM - M 649 SEH 1605
1426 RAYSSAC Xavier 13:53:51 V1H - M 552 V1H 1791
1428 VON BROCKE Klaus 13:53:53 V1H - M 553 V1H 731
1429 ORLANDINI Jerome 13:53:57 V1H - M 554 V1H 2111
1430 JOUFFRET Thierry 13:54:20 V1H - M 555 V1H 1134
1431 BOUGRAINVILLE Bruno 13:54:25 SEM - M 650 SEH 277
1432 DOS SANTOS RODRIGUES Jean 13:54:45 SEM - M 651 SEH 2688
1433 HENRY Pascal 13:54:55 V2H - M 124 V2H 2298
1434 DORE Marc 13:55:00 V1H - M 556 V1H 2453
1435 HENRY Benjamin 13:55:15 SEM - M 652 SEH 1334
1436 LOCATELLI Eric 13:55:18 V1H - M 557 V1H 692
1437 COESLIER Cyril 13:55:25 V1H - M 558 V1H 1071
1438 GAULT Bruno 13:55:43 V1H - M 559 V1H 1538
1439 GRES Jean Christophe 13:55:44 V1H - M 560 V1H 2901
1440 MOONEN Thierry 13:55:46 V2H - M 125 V2H 2346
1441 ESPINOSA Pascal 13:55:47 V1H - M 561 V1H 1325
1442 LE SOLLIEC Teddy 13:55:52 SEM - M 653 SEH 859
1442 BERRIEN David 13:55:52 SEM - M 653 SEH 2472
1444 REY Guillaume 13:55:55 SEM - M 655 SEH 1249
1444 POUEY Guillaume 13:55:55 SEM - M 655 SEH 1906
1444 ELIE MARIUS Xavier 13:55:55 V1H - M 562 V1H 1475
1447 SIV Nathalie 13:55:56 SEF - F 48 SEF 2161
1448 SIV David 13:55:58 V1H - M 563 V1H 2162
1449 TISSOT Michel 13:55:59 V3H - M 14 V3H 1190
1450 DAOUDAL Jean Louis 13:56:05 V2H - M 126 V2H 2366
1451 DUBRULLE Cedric 13:56:06 SEM - M 657 SEH 2401
1451 DUPIN Sebastien 13:56:06 SEM - M 657 SEH 846
1451 CHAUVY Boris 13:56:06 SEM - M 657 SEH 1182
1454 VERNEX Fanny 13:56:07 SEF - F 49 SEF 2421
1455 MARTINAGE Farid 13:56:09 SEM - M 660 SEH 1929
1456 RODIER Andre 13:56:16 V2H - M 127 V2H 457
1456 REY Jerome 13:56:16 V1H - M 564 V1H 2013
1456 BATISSE Pierre 13:56:16 V3H - M 15 V3H 31
1456 PROVOST Laurent 13:56:16 SEM - M 661 SEH 1781
1460 LEROYER Nicolas 13:56:17 V1H - M 565 V1H 1227
1461 MATERINSKY REMI Remi 13:56:18 V2H - M 128 V2H 1957
1461 ROMERO ALARCON Katherine 13:56:18 SEF - F 50 SEF 1780
1461 CARPENTIER Philippe 13:56:18 V1H - M 566 V1H 1697
1464 ALIBERT Stephane 13:56:40 SEM - M 662 SEH 1442
1465 ALBER Lionel 13:56:47 SEM - M 663 SEH 2915
1466 GRANGIER Christophe 13:56:49 V1H - M 567 V1H 757
1466 CHAVIER Pierre 13:56:49 V1H - M 567 V1H 848
1468 SAUGERE Fabien 13:56:55 V1H - M 569 V1H 1384
1468 GUIHeNEUF Yann 13:56:55 SEM - M 664 SEH 1229
1470 ESPOSTI Simone 13:56:56 V1H - M 570 V1H 2853
1471 ALBERGHI Jean Raphael 13:57:25 V3H - M 16 V3H 2769
1471 PERILLON Lucas 13:57:25 SEM - M 665 SEH 1397
1473 KUBACKI Alexandre 13:57:27 SEM - M 666 SEH 1130
1473 ARCHIMBAUD Clelia 13:57:27 SEF - F 51 SEF 1128
1475 BISIAU Philippe 13:57:33 V2H - M 129 V2H 2738
1476 AUSSILLOUS Nicolas 13:57:36 SEM - M 667 SEH 2888
1477 CHAMAS Thierry 13:57:38 V1H - M 571 V1H 1289
1478 MASSON Julien 13:57:43 SEM - M 668 SEH 2474
1479 TANGUY Sebastien 13:57:44 SEM - M 669 SEH 932
1480 MINGUENAUD Stephane 13:58:14 V1H - M 572 V1H 2195
1480 SCHIER Sylvain 13:58:14 V1H - M 572 V1H 2194
1482 CAZET David 13:58:16 V1H - M 574 V1H 1472
1483 AGUIRRE Laurent 13:58:22 SEM - M 670 SEH 438
1483 TREMINE Herve 13:58:22 V1H - M 575 V1H 1725
1485 CADEAU Eric 13:58:23 V1H - M 576 V1H 1377
1486 DAUSSIN CHARPANTIER Cyril 13:58:28 V1H - M 577 V1H 705
1486 ESTEVENIN Michel 13:58:28 V2H - M 130 V2H 2592
1488 PEZET Didier 13:58:32 V2H - M 131 V2H 2073
1489 ENA Sebastien 13:58:55 SEM - M 671 SEH 2619
1490 BROCHARD Marilyn 13:59:05 V1F - F 31 V1F 1818
1491 BENOIT Thibault 13:59:06 SEM - M 672 SEH 1907
1492 GAUTIER Gilles 13:59:07 V2H - M 132 V2H 2029
1493 AURe Olivier 13:59:09 SEM - M 673 SEH 1899
1494 SOLLIER Serge 13:59:13 V1H - M 578 V1H 2224
1495 BAUDIER William 13:59:25 SEM - M 674 SEH 2828
1496 BAILLARD Thierry 13:59:28 V2H - M 133 V2H 257
1497 LECLERCQ Christophe 13:59:47 V1H - M 579 V1H 1631
1498 MICHEL Frederic 13:59:50 V1H - M 580 V1H 344
1499 SARTHOU Pierre 13:59:58 SEM - M 675 SEH 915
1500 GAULARD Albert 13:59:59 V3H - M 17 V3H 868
1501 CHERAVOLA Bruno 14:00:07 V2H - M 134 V2H 1370
1502 RICHARD Francois 14:00:09 SEM - M 676 SEH 1114
1503 MAYET Jerome 14:00:20 SEM - M 677 SEH 1421
1504 MACQUART Gregory 14:00:23 SEM - M 678 SEH 2455
1505 PUDET Thierry 14:00:24 V2H - M 135 V2H 559
1505 SOURY Patrick 14:00:24 V2H - M 135 V2H 2640
1507 MOUTON Francois 14:00:26 SEM - M 679 SEH 1155
1507 RIVIERE Joel 14:00:26 V2H - M 137 V2H 2641
1509 POSKO Xavier 14:00:29 V1H - M 581 V1H 1597
1510 CANOVAS Thierry 14:00:31 V1H - M 582 V1H 2620
1511 TABUTEAU Marie 14:00:51 SEF - F 52 SEF 2713
1512 DIENER Yvan 14:00:54 SEM - M 680 SEH 1074
1513 BUSSON Philippe 14:01:47 V1H - M 583 V1H 1649
1514 MATHIEU David 14:02:02 V1H - M 584 V1H 1166
1515 FOSCO Cedrix 14:02:06 SEM - M 681 SEH 1806
1516 LEFRANCOIS Olivier 14:02:11 V1H - M 585 V1H 1242
1516 MATT Jerome 14:02:11 V1H - M 585 V1H 2790
1518 GUILLAUME Jonathan 14:02:18 V1H - M 587 V1H 2263
1519 ROCHEREUIL Philippe 14:02:45 V1H - M 588 V1H 2377
1520 HERAUD Nicolas 14:03:44 V1H - M 589 V1H 1173
1521 BAUDOUIN Thomas 14:03:47 V1H - M 590 V1H 1024
1522 VALTIER Ludovic 14:04:20 SEM - M 682 SEH 2850
1522 ORY Cyrille 14:04:20 V1H - M 591 V1H 1254
1524 BRETON Patrice 14:04:22 V1H - M 592 V1H 2821
1525 DI FILIPPO David 14:04:24 V1H - M 593 V1H 1428
1526 AZZOPARDI Cendrine 14:04:48 SEF - F 53 SEF 904
1527 BREC Olivier 14:04:49 V1H - M 594 V1H 2469
1528 HOELTZEL Hubert 14:04:50 V1H - M 595 V1H 2466
1529 PEGAZ Frederic 14:04:51 V2H - M 138 V2H 1804
1530 LEMARCHAND Thomas 14:05:08 SEM - M 683 SEH 1944
1531 BLAISE Laurent 14:06:23 SEM - M 684 SEH 1315
1532 BUTTAY Patrice 14:06:26 V1H - M 596 V1H 2443
1533 FONTAS Mathieu 14:07:10 SEM - M 685 SEH 2944
1534 DEBERLE Benjamin 14:07:24 SEM - M 686 SEH 1675
1535 DUSSART Nicolas 14:07:25 SEM - M 687 SEH 1682
1536 DEBERLE Thierry 14:07:26 SEM - M 688 SEH 1674
1537 LEVEIL Xavier 14:08:29 V1H - M 597 V1H 2448
1538 MAHE Alain 14:08:30 V2H - M 139 V2H 2648
1539 CHAPUT Eric 14:09:05 V1H - M 598 V1H 1361
1540 GROS Pierre 14:09:35 SEM - M 689 SEH 2782
1541 BEAULIEU Ronan 14:10:19 SEM - M 690 SEH 1276
1542 MERIOT Christiane 14:11:38 V1F - F 32 V1F 2711
1543 GRAVE Philippe 14:11:39 V2H - M 140 V2H 2712
1544 BOURGOIN Pierre 14:12:20 SEM - M 691 SEH 2682
1545 GAY Eric 14:12:45 V1H - M 599 V1H 1262
1546 DABIRE Sie 14:13:56 V1H - M 600 V1H 2609
1547 RAMOUSSE Richard 14:13:58 V1H - M 601 V1H 719
1548 BARBE Anthony 14:14:15 V1H - M 602 V1H 1760
1549 HELIOT Laurent 14:14:31 V1H - M 603 V1H 1659
1550 BATIFOULIER Severine 14:15:31 V1F - F 33 V1F 901
1551 ROUSSET Jean Paul 14:15:32 V2H - M 141 V2H 1349
1552 COUSTET Laetitia 14:15:34 SEF - F 54 SEF 887
1553 MASSE Jean Yves 14:15:39 V2H - M 142 V2H 2784
1554 FOUGEREUX Anne 14:17:00 SEF - F 55 SEF 191
1554 DANGLOT Michael 14:17:00 V1H - M 604 V1H 1432
1556 ARLAUT Stephane 14:17:02 V1H - M 605 V1H 1181
1557 NOGUEIRA Jean Philippe 14:17:19 V1H - M 606 V1H 349
1558 LE BOHEC Andre 14:17:55 V2H - M 143 V2H 2151
1559 AUFFRAY Jean Rene 14:18:21 V1H - M 607 V1H 2012
1559 DELANOe Erwan 14:18:21 V1H - M 607 V1H 1997
1561 AUFFRAY Didier 14:18:25 V2H - M 144 V2H 2014
1562 SAUTIRAN Cyril 14:18:38 SEM - M 692 SEH 1609
1563 MATTA Giannangelo 14:18:42 V2H - M 145 V2H 2931
1564 DUBOIS Antony 14:18:50 V1H - M 609 V1H 1864
1565 LEFEBVRE Nicolas 14:19:17 SEM - M 693 SEH 2462
1566 DARVIEU Jacques 14:19:18 SEM - M 694 SEH 2533
1567 WAN TAN YUE Christine 14:19:38 SEF - F 56 SEF 1208
1567 DURAND Regis 14:19:38 V1H - M 610 V1H 2677
1569 CIBERT Fabrice 14:19:42 V1H - M 611 V1H 1470
1570 QUINTARD Philippe 14:20:13 V2H - M 146 V2H 2007
1571 LE GALL Erwan 14:21:10 SEM - M 695 SEH 187
1572 LAURRAIN Henri 14:21:59 V1H - M 612 V1H 2232
1573 MALPHETTES Francois 14:22:20 SEM - M 696 SEH 2103
1574 FOURe Yann 14:22:30 V1H - M 613 V1H 1592
1575 LAFITTE Frederic 14:22:31 V1H - M 614 V1H 1848
1575 HARDAT Ludovic 14:22:31 SEM - M 697 SEH 2656
1577 KECIR Stephanie 14:22:32 SEF - F 57 SEF 1850
1577 BELLERET Jerome 14:22:32 V1H - M 615 V1H 2478
1577 GUILLAUMEAU Julien 14:22:32 SEM - M 698 SEH 2486
1580 DEPUISET Izvoren 14:22:33 SEM - M 699 SEH 855
1581 HAMARD Jacques 14:22:34 V2H - M 147 V2H 1971
1582 CHAN PIU Frederic 14:22:35 V1H - M 616 V1H 1492
1582 COLLIN Damien 14:22:35 SEM - M 700 SEH 2092
1584 COURTEL Denis 14:22:37 V1H - M 617 V1H 1479
1585 DRIFFAUD Frederic 14:22:38 V1H - M 618 V1H 2246
1585 CAUDRON Frederic 14:22:38 SEM - M 701 SEH 1445
1587 COURSIN Arnaud 14:22:40 SEM - M 702 SEH 1441
1588 GUILLOTEAU Eric 14:22:41 V1H - M 619 V1H 1601
1589 CALMELS Anne Marie 14:22:56 V3F - F 1 V3F 2958
1590 LE FORT Frederic 14:23:25 SEM - M 703 SEH 1066
1591 BURLOT Ludovic 14:23:26 V1H - M 620 V1H 2979
1592 VEYRET Philippe 14:23:35 V2H - M 148 V2H 1928
1593 VEYRET Simon 14:23:38 SEM - M 704 SEH 2205
1594 SOULIER Philippe 14:23:40 V1H - M 621 V1H 2434
1595 PELTAN Aurelien 14:23:46 SEM - F 705 SEH 2921
1596 JANOT Christophe 14:23:47 V1H - M 622 V1H 1945
1597 DIZIAIN Cedric 14:24:03 V1H - M 623 V1H 2772
1598 CORNU Isabelle 14:24:13 V1F - F 34 V1F 2113
1599 SARAMAGO Julio 14:24:15 SEM - M 706 SEH 1777
1600 DEHENRY Geoffrey 14:24:31 SEM - M 707 SEH 2836
1601 SCHAEFER Christophe 14:24:36 V1H - M 624 V1H 2831
1602 LE MEUR Joel 14:25:06 V2H - M 149 V2H 2152
1603 DORDAN Carine 14:25:16 V1F - F 35 V1F 2629
1603 BOURLIER Christophe 14:25:16 V1H - M 625 V1H 2624
1605 COCHET Gerard 14:25:19 V1H - M 626 V1H 1320
1606 DUBAYLE Laurence 14:25:20 V1F - F 36 V1F 1362
1607 BRUNELLE Dimitri 14:25:22 SEM - M 708 SEH 2261
1608 CANIVET Philippe 14:25:23 V1H - M 627 V1H 835
1609 DIZET Philippe 14:25:29 V1H - M 628 V1H 1326
1610 GIBERT Michel 14:25:44 V2H - M 150 V2H 2616
1611 LOUSTEAU Olivier 14:25:57 V1H - M 629 V1H 1292
1612 CADILLAC Sebastien 14:25:58 SEM - M 709 SEH 1296
1613 JANKOWSKI Bruno 14:26:12 V2H - M 151 V2H 1904
1614 DEMOUX Philippe 14:26:31 V1H - M 630 V1H 2535
1615 GUENO CHEVALIER Katia 14:26:34 V2F - F 6 V2F 669
1616 BARRE Xavier 14:26:36 V1H - M 631 V1H 2188
1617 OUDIN Jean Louis 14:27:03 V2H - M 152 V2H 2758
1617 OUDIN Georges 14:27:03 V2H - M 152 V2H 2919
1619 PIPARD Pascal 14:27:11 V1H - M 632 V1H 2403
1620 CHALABI Michael 14:27:13 V1H - M 633 V1H 2529
1621 BESSETTES Thierry 14:27:16 V1H - M 634 V1H 2911
1622 MAGRIT Nadine 14:27:17 V1F - F 37 V1F 2071
1623 TILLET Damien 14:27:19 V1H - M 635 V1H 826
1624 FOURNIER Patrice 14:27:21 V1H - M 636 V1H 902
1625 SOURIAC Eric 14:27:39 V1H - M 637 V1H 2785
1626 ALEXANDRE Denis 14:27:54 V2H - M 154 V2H 2829
1627 BOSQ Fabrice 14:28:09 V1H - M 638 V1H 2256
1628 MOULIS Pascal 14:28:38 SEM - M 710 SEH 1206
1629 MOULIS Frederic 14:28:39 SEM - M 711 SEH 1207
1630 CHENE Marc 14:28:50 V1H - M 639 V1H 2976
1631 BERNARD Chantal 14:28:51 V2F - F 7 V2F 2975
1632 GERMOND Florian 14:28:52 SEM - M 712 SEH 2316
1633 RUPI Gianluca 14:28:53 V1H - M 640 V1H 2855
1634 REMODON Jean Louis 14:28:57 V1H - M 641 V1H 1307
1635 CARLIER Pascal 14:28:59 V1H - M 642 V1H 541
1636 HUOT Jeremie 14:29:01 V1H - M 643 V1H 2408
1637 BALLAND Jean Charles 14:29:08 V1H - M 644 V1H 1716
1638 MERCKEL Claude 14:29:12 V2H - M 155 V2H 2260
1639 SICARD Stephan 14:29:22 SEM - M 713 SEH 2581
1640 DAUDET Patrick 14:29:26 V1H - M 645 V1H 1774
1641 AUBIN Francoise 14:29:47 V2F - F 8 V2F 2110
1642 HUYON Sebastien 14:29:50 SEM - M 714 SEH 2129
1643 COLIN Jean Robert 14:30:04 V2H - M 156 V2H 1279
1644 GRIMALDI Jean Michel 14:30:11 V1H - M 646 V1H 1958
1644 BRIGAND Philippe 14:30:11 V1H - M 646 V1H 1158
1646 BARDOUL Jeremy 14:30:15 SEM - M 715 SEH 2356
1647 SOUCHET Yann 14:30:24 V1H - M 648 V1H 1654
1648 LETALLEUR Nicolas 14:30:26 V1H - M 649 V1H 1002
1649 LOUVEL Ludovic 14:30:40 V1H - M 650 V1H 363
1650 DEBUCQUOI Christophe 14:30:41 SEM - M 716 SEH 355
1651 CATTONI Thibault 14:30:42 SEM - M 717 SEH 2170
1652 RAMBAUD David 14:30:48 SEM - M 718 SEH 198
1653 MARTINEZ Rodolphe 14:30:59 SEM - M 719 SEH 1829
1654 GAILLON Sebastien 14:31:05 SEM - M 720 SEH 2135
1655 HERTAULT Thomas 14:31:08 SEM - M 721 SEH 815
1656 BODDAERT Cyril 14:31:09 SEM - M 722 SEH 1006
1657 CAVROT Christophe 14:31:13 V1H - M 651 V1H 2081
1658 CROCHET Stephanie 14:31:17 V1F - F 38 V1F 1964
1658 BOIBLe Stephane 14:31:17 V1H - M 652 V1H 1960
1660 RIFFAUD Olivier 14:31:19 V1H - M 653 V1H 1214
1661 LAVIE Thierry 14:31:20 V1H - M 654 V1H 1686
1662 RIFFAUD Estelle 14:31:24 SEF - F 58 SEF 1213
1662 GRASSIEN Jerome 14:31:24 V1H - M 655 V1H 929
1662 CARIDROIT Frederic 14:31:24 V1H - M 655 V1H 1471
1662 GUERLUS Christophe 14:31:24 V1H - M 655 V1H 1395
1666 WOLFS Aristide 14:31:28 V1H - M 658 V1H 1154
1667 LEJARS Julien 14:31:50 SEM - M 723 SEH 1444
1668 TEVAR Maria Christina 14:31:56 V1F - F 39 V1F 1496
1669 WEERTZ Philippe 14:31:57 V1H - M 659 V1H 1494
1670 GARREAU Sebastien 14:32:03 V1H - M 660 V1H 2084
1671 JEHL Dominique 14:32:06 V2H - M 157 V2H 2342
1672 BONNEFOY Gilles 14:32:11 V2H - M 158 V2H 2512
1673 SENUT Christophe 14:32:12 V1H - M 661 V1H 662
1674 DABANCENS Francis 14:32:16 V2H - M 159 V2H 1683
1675 VARLET Christian 14:32:29 V1H - M 662 V1H 1090
1676 LOUVIOT Philippe 14:32:30 V1H - M 663 V1H 1382
1677 HOSATTE Frederic 14:32:33 V3H - M 18 V3H 2847
1678 PETIT Luc 14:32:34 V2H - M 160 V2H 2826
1679 GELY Sylvain 14:32:38 V1H - M 664 V1H 706
1679 ALIX Ludovic 14:32:38 V1H - M 664 V1H 1486
1681 LE GUYADER Stephane 14:32:40 V1H - M 666 V1H 1480
1682 SCHIFANO Michel 14:32:43 V1H - M 667 V1H 1783
1683 SUDRES Sebastien 14:32:46 SEM - M 724 SEH 2252
1683 BROCHERIEUX Charles 14:32:46 SEM - M 724 SEH 1364
1685 ETCHEMENDYBEHERE Walter 14:32:49 SEM - M 726 SEH 1396
1686 POUCHAIN Valery 14:32:54 V1H - M 668 V1H 1552
1687 MRUGALA David 14:32:56 V1H - M 669 V1H 1910
1687 COLLARD Herve 14:32:56 V1H - M 669 V1H 206
1689 ReMOND Sebastien 14:32:59 SEM - M 727 SEH 2518
1689 AUTHEVILLE Vincent 14:32:59 V1H - M 671 V1H 2344
1689 MARTY Vincent 14:32:59 V1H - M 671 V1H 1267
1692 PAQUERIAUD Richard 14:33:10 V1H - M 673 V1H 1102
1693 MEUNIER Stephane 14:33:12 V1H - M 674 V1H 1854
1693 BORI Evelyne 14:33:12 V1F - F 40 V1F 1856
1695 LAYOUR Ludovic 14:33:14 SEM - M 728 SEH 566
1696 BAUDOUIN Christophe 14:33:16 V2H - M 161 V2H 2221
1697 BETENCOURT Thierry 14:33:17 V1H - M 675 V1H 2431
1698 BOITEL Christophe 14:33:19 SEM - M 729 SEH 2193
1699 MARTINEZ Maryvonne 14:33:25 V2F - F 9 V2F 2244
1700 LEFEBVRE Cedric 14:33:44 V1H - M 676 V1H 2880
1701 LE GONIDEC Christophe 14:34:08 SEM - M 730 SEH 1191
1701 ABISSET Sebastien 14:34:08 V1H - M 677 V1H 2599
1703 BROUSSOLLE Thomas 14:35:03 SEM - M 731 SEH 991
1704 SALLES Frank 14:35:33 V1H - M 678 V1H 2746
1705 CARLE Franck 14:38:13 V1H - M 679 V1H 1892
1706 TABET Samuel 14:38:34 SEM - M 732 SEH 1773
1707 COUTADEUR Olivier 14:40:12 SEM - M 733 SEH 2454
1708 SAUBION Eric 14:40:14 V1H - M 680 V1H 856
1709 DANI Jerome 14:40:33 SEM - M 734 SEH 828
1710 LOZACH Arnaud 14:40:40 SEM - M 735 SEH 2442
1711 CHAMBRIN Yael 14:41:30 V1H - M 681 V1H 2141
1712 ILLIANO Stephane 14:42:38 V1H - M 682 V1H 2171
1713 LEFEBVRE Maxime 14:42:56 SEM - M 736 SEH 1832
1714 ANDREOSSO Richard 14:43:08 V2H - M 162 V2H 2477
1715 ARSLAN Tamer 14:43:10 SEM - M 737 SEH 2904
1716 SAUVE Gregory 14:43:11 V1H - M 683 V1H 2268
1717 GOLLA Jerome 14:43:34 V1H - M 684 V1H 2104
1718 COEFFIC Arnaud 14:43:50 SEM - M 738 SEH 2306
1719 FURON Sebastien 14:43:52 SEM - M 739 SEH 2678
1720 ENDLER Maximilien 14:44:00 SEM - M 740 SEH 204
1721 GAROT Matthias 14:44:22 SEM - M 741 SEH 919
1722 LEVESQUE Yan 14:44:45 V1H - M 685 V1H 2525
1723 CINI Stephane 14:44:48 V1H - M 686 V1H 1015
1723 BARRY Willy 14:44:48 SEM - M 742 SEH 1018
1725 BEURGUET Damien 14:44:51 SEM - M 743 SEH 1720
1726 RIDEL Sophie 14:44:53 V1F - F 41 V1F 1800
1727 GODET Arnaud 14:44:54 V1H - M 687 V1H 1012
1728 DIFFINe Dominique 14:45:19 V1H - M 688 V1H 1616
1729 DAVID Yves 14:45:23 V1H - M 689 V1H 1704
1730 ZAREMBA Sebastien 14:45:36 SEM - M 744 SEH 954
1731 FRANcOIS Eric 14:45:39 V2H - M 163 V2H 939
1732 RENWICK Vincent 14:45:43 SEM - M 745 SEH 2887
1733 BELVER Tony 14:45:45 SEM - M 746 SEH 2885
1734 ARNAUD Olivier 14:46:59 V1H - M 690 V1H 1549
1735 MeAR Anthony 14:47:08 SEM - M 747 SEH 1796
1735 MeAR Benjamin 14:47:08 SEM - M 747 SEH 1798
1737 CERF Benoit 14:47:16 SEM - M 749 SEH 1893
1737 PAQUEREAU Benoit 14:47:16 V1H - M 691 V1H 1621
1739 DANGLOT Julien 14:47:20 SEM - M 750 SEH 1354
1740 DELPECH Jerome 14:47:21 V1H - M 692 V1H 1927
1741 GENIN Gilles 14:47:22 V1H - M 693 V1H 2383
1742 JULIEN Frederic 14:47:43 V2H - M 164 V2H 1469
1743 FOUROT Olivier 14:47:58 V1H - M 694 V1H 1580
1743 PORTUGUEZ Laurent 14:47:58 V1H - M 694 V1H 1082
1743 HERBE Denis 14:47:58 V1H - M 694 V1H 1211
1746 BOUSSAC Melanie 14:48:05 SEF - F 59 SEF 1827
1747 COURMONT Xavier 14:48:07 V1H - M 697 V1H 1711
1748 BOUSSAC Guillaume 14:48:08 SEM - M 751 SEH 1828
1749 FLAIG Beatrice 14:48:48 SEF - F 60 SEF 2910
1749 LAUHOFF Andre 14:48:48 SEM - M 752 SEH 2920
1751 LEPRETRE Isabelle 14:48:58 V1F - F 42 V1F 2774
1752 ALINAT Marie Dominique 14:48:59 V2F - F 10 V2F 2353
1752 GRANDSIRE Olivier 14:48:59 SEM - M 753 SEH 1458
1754 GAUCI Thierry 14:49:22 V2H - M 165 V2H 2399
1755 LESPONNE BANSARD Frederique 14:49:27 SEF - F 61 SEF 1662
1756 DOILLON Veronique 14:49:31 V2F - F 11 V2F 2257
1756 ANDRE Jean 14:49:31 V3H - M 19 V3H 2255
1758 MORAUX Dominique 14:49:33 V3H - M 20 V3H 2112
1760 PERROT Gregory 14:49:34 SEM - M 755 SEH 1238
1761 ROUSSIER Nicolas 14:49:42 V1H - M 698 V1H 1035
1762 VILAS Carlos 14:49:46 V1H - M 699 V1H 888
1763 PORCHER Erwan 14:49:55 SEM - M 756 SEH 1508
1764 DOUBLET Jean Marc 14:49:56 V1H - M 700 V1H 1531
1764 AYMARD Stephane 14:49:56 SEM - M 757 SEH 2212
1766 POREE Jean Luc 14:49:57 V3H - M 21 V3H 2815
1766 BERGER Loic 14:49:57 SEM - M 758 SEH 1405
1768 CHANGENET Matthieu 14:49:58 SEM - M 759 SEH 2914
1769 GUESDON Anthony 14:49:59 V1H - M 701 V1H 1594
1770 SOUTZO Raphael 14:50:01 V1H - M 702 V1H 1896
1771 RETUREAU Tony 14:50:04 SEM - M 760 SEH 1530
1772 BARABE Pascal 14:50:52 V2H - M 166 V2H 1378
1772 PORTRON Cyrille 14:50:52 V1H - M 703 V1H 2198
1774 SAINT MARC Anthony 14:50:59 SEM - M 761 SEH 2654
1775 VERDU Olivier 14:51:02 SEM - M 762 SEH 2653
1775 SAINT MARC Michel 14:51:02 V2H - M 167 V2H 2685
1777 PROUST Michel 14:51:07 V1H - M 704 V1H 1719
1778 BECHADE Cedric 14:51:13 SEM - M 763 SEH 1962
1779 HELIBERT Olivier 14:51:18 V1H - M 705 V1H 1519
1780 FOUCHET Laurent 14:51:27 V1H - M 706 V1H 2878
1781 PIETIN Laurent 14:51:34 V1H - M 707 V1H 1124
1782 LE CORRE Patrice 14:51:35 V1H - M 708 V1H 2201
1783 RODIER Serge 14:51:46 V2H - M 168 V2H 1822
1784 COMBEMALE Sabine 14:52:36 SEF - F 62 SEF 2494
1785 FAOR Bruno 14:52:39 V2H - M 169 V2H 2795
1786 MORIN Philippe 14:52:50 V2H - M 170 V2H 1959
1787 PLATEAU Frederic 14:52:54 SEM - M 764 SEH 2172
1788 BOUTTEFORT Bruno 14:53:05 SEM - M 765 SEH 2241
1789 CHERMAIN Boris 14:53:37 SEM - M 766 SEH 2882
1790 REUZE David 14:53:38 V1H - M 709 V1H 2203
1791 GISCLON Rodolphe 14:54:00 SEM - M 767 SEH 2510
1792 FRIZOT Guillaume 14:54:02 SEM - M 768 SEH 2974
1793 GUILLIN Isabelle 14:54:06 V2F - F 12 V2F 1712
1794 RENOU Benoit 14:54:16 SEM - M 769 SEH 2737
1795 DUBEL Damien 14:55:12 V1H - M 710 V1H 2561
1796 APPERE Benoit 14:55:16 SEM - M 770 SEH 2026
1797 DELANNEE Damien 14:55:18 SEM - M 771 SEH 2033
1798 RENOLLEAU Freddy 14:55:30 SEM - M 772 SEH 1410
1799 FLUCK Lionel 14:55:38 SEM - M 773 SEH 2499
1799 LASBENNES Eric 14:55:38 V1H - M 711 V1H 2933
1799 WOELFFEL Thierry 14:55:38 V2H - M 171 V2H 2045
1802 LONGUET Alexandre 14:56:09 SEM - M 774 SEH 2213
1803 MATHIS Jean Christophe 14:56:10 V1H - M 712 V1H 2239
1804 LE CUN Christophe 14:56:13 V1H - M 713 V1H 2061
1805 BLONDEL Romuald 14:56:18 V1H - M 714 V1H 1655
1806 FRANCHOIS Fabienne 14:56:24 V1F - F 43 V1F 2042
1807 DESVERRONNIERES Christian 14:56:28 V2H - M 172 V2H 2132
1808 OLIVA MYRIAM 14:56:47 V1F - F 44 V1F 2230
1809 RIOUX Gilles 14:58:06 V2H - M 173 V2H 925
1809 MAGNIER Christophe 14:58:06 V1H - M 715 V1H 1170
1811 VINCENT Anthony 14:58:08 V1H - M 716 V1H 190
1812 BOURDOIS Yves 14:58:11 V1H - M 717 V1H 2669
1813 BLIN Pascal 14:58:12 V2H - M 174 V2H 2445
1814 BORDIS Olivier 14:58:15 V1H - M 718 V1H 1453
1815 JEAN Philippe 14:58:34 V3H - M 22 V3H 2008
1816 CHARBONNIER Gregory 14:58:58 V1H - M 719 V1H 2679
1817 LELLOUCH Jean Louis 14:59:09 V2H - M 175 V2H 1584
1818 EPAIN Emmanuel 14:59:23 SEM - M 775 SEH 1314
1819 PERRAY Jean Yves 14:59:51 V2H - M 176 V2H 1629
1820 VIOLET Alain 14:59:52 V2H - M 177 V2H 2233
1821 TOGNI Kevin 14:59:55 SEM - M 776 SEH 2333
1822 BELLIER Eric 15:00:46 V1H - M 720 V1H 2617
1823 GUINEHEUX Sebastien 15:00:57 SEM - M 777 SEH 2562
1824 MOLLe Bernard 15:01:22 V2H - M 178 V2H 1564
1825 LECLERCQ Christophe 15:01:49 V1H - M 721 V1H 2313
1825 BETTING Benjamin 15:01:49 SEM - M 778 SEH 2972
1827 MAReCHAL elodie 15:01:50 SEF - F 63 SEF 1936
1828 STOPIN Pierre Yves 15:01:52 V1H - M 722 V1H 2330
1829 RECHT Jean Luc 15:01:56 V1H - M 723 V1H 1363
1830 RONZIERE Gilles 15:03:22 V2H - M 179 V2H 2840
1831 RIBBE Pierre 15:03:48 SEM - M 779 SEH 1742
1832 GOURSOLLES Olivier 15:04:07 V1H - M 724 V1H 1473
1833 DUHAMEAUX Philippe 15:04:13 V2H - M 180 V2H 1416
1834 PLUNIAN Benoit 15:04:22 SEM - M 780 SEH 2464
1835 DA COSTA Paulo 15:04:28 V1H - M 725 V1H 1633
1836 MOAL Loic 15:04:56 V1H - M 726 V1H 2219
1837 GRENOUILLET Nathalie 15:05:49 V2F - F 13 V2F 1873
1838 CAILLAUD Pascal 15:05:54 V1H - M 727 V1H 1826
1839 DUMAS Lilian 15:06:05 SEM - M 781 SEH 1678
1839 FROT Herve 15:06:05 V1H - M 728 V1H 1723
1839 COMBE Renaud 15:06:05 SEM - M 781 SEH 2253
1842 NICOLAS Luc 15:06:07 V1H - M 729 V1H 1751
1843 L'HoTE Veronique 15:06:12 SEF - F 64 SEF 2643
1844 COUSSEAU Sebastien 15:06:29 V1H - M 730 V1H 1540
1845 HENOT Cyril 15:06:34 V1H - M 731 V1H 290
1846 CAMPOY Ghyslaine 15:06:37 V2F - F 14 V2F 1843
1847 TRIHAN Tristan 15:07:14 SEM - M 783 SEH 2294
1848 GUERIN Frederic 15:07:16 SEM - M 784 SEH 2072
1849 HEMION David 15:07:18 SEM - M 785 SEH 1891
1849 BOUILLETEAU Vincent 15:07:18 V1H - M 732 V1H 1888
1849 GIBEY Anne 15:07:18 V1F - F 45 V1F 1882
1852 PIN Michael 15:07:38 SEM - M 786 SEH 995
1853 VIVIEN Laurence 15:07:52 V2F - F 15 V2F 2371
1854 COUTIN Christophe 15:07:59 V1H - M 733 V1H 2879
1855 BLANCHE Herve 15:08:00 V1H - M 734 V1H 2875
1856 CORBEL Yannick 15:08:38 SEM - M 787 SEH 2147
1857 DAVID Olivier 15:08:54 V1H - M 735 V1H 2760
1858 GARREAU Stephane 15:08:55 V1H - M 736 V1H 2391
1859 MAReCHAL Pascal 15:08:56 V2H - M 181 V2H 1935
1860 CARRE Anthony 15:09:02 SEM - M 788 SEH 2589
1861 BRUNELLE Olivier 15:10:07 V1H - M 737 V1H 2571
1862 GUYOT Cyril 15:10:40 SEM - M 789 SEH 830
1863 SAINSAULIEU Florent 15:11:25 SEM - M 790 SEH 1977
1864 DALLAY Cyril 15:11:26 SEM - M 791 SEH 892
1865 MARTINEZ PEREZ Llorens 15:11:33 SEM - M 792 SEH 1714
1866 MOUCHET Laurent 15:11:40 V2H - M 182 V2H 2761
1867 CLEVY Roland 15:11:41 V1H - M 738 V1H 2156
1868 HIGNARD Cyrille 15:11:42 V1H - M 739 V1H 2749
1869 LEFEVER Jean Marc 15:11:45 V1H - M 740 V1H 2750
1870 CHABANNIER Patrice 15:11:47 V1H - M 741 V1H 1375
1871 JURE Eddy 15:11:57 V1H - M 742 V1H 890
1872 PETIT Franck 15:12:18 V1H - M 743 V1H 885
1873 KERGUNTUIL Lionel 15:12:35 V1H - M 744 V1H 2374
1874 FRANQUENOUL Sylvain 15:12:47 SEM - M 793 SEH 699
1874 DUBOIS Olivier 15:12:47 SEM - M 793 SEH 2816
1876 CURELLI Anne 15:13:11 SEF - F 65 SEF 2876
1876 BENOIT LUC Luc 15:13:11 SEM - M 795 SEH 2324
1878 BOISGARD Clovis 15:13:13 V1H - M 745 V1H 1642
1879 PAUL Bernard 15:13:30 V1H - M 746 V1H 1757
1879 HENRY Dimitri 15:13:30 V1H - M 746 V1H 1746
1881 GUILLOT David 15:13:34 V1H - M 748 V1H 1956
1882 THOREL Frederic 15:13:40 SEM - M 796 SEH 845
1883 TEUF Ludovic 15:13:43 SEM - M 797 SEH 1424
1884 ARSENE Tony 15:13:44 SEM - M 798 SEH 2380
1885 DAUDET Dominique 15:13:47 V2H - M 183 V2H 2102
1886 BOURON Philippe 15:16:23 V1H - M 749 V1H 1086
1887 OPINEL Pamela 15:16:25 SEF - F 66 SEF 1571
1888 CHEVIGNARD Gregoire 15:17:03 V1H - M 750 V1H 2164
1889 MAYET Ludovic 15:17:18 V1H - M 751 V1H 589
1890 GSSAIAR Sellam 15:17:41 SEM - M 799 SEH 2430
1891 DUPUY Pascal 15:17:48 V2H - M 184 V2H 2159
1892 LEHEC Regis 15:17:56 SEM - M 800 SEH 302
1893 KHALDI Mustapha 15:17:58 V2H - M 185 V2H 2274
1894 CASIER Frederic 15:18:06 V1H - M 752 V1H 2271
1895 RULLEAU Ivan 15:19:14 V1H - M 753 V1H 2107
1896 CORNEC Christophe 15:19:16 V1H - M 754 V1H 2800
1897 RAPEAU Jean Pierre 15:19:18 V2H - M 186 V2H 2309
1898 DURAND Benoit 15:19:20 V1H - M 755 V1H 2801
1899 MONGUILOD MYRIAM 15:19:25 SEF - F 67 SEF 2108
1900 FORGET Thierry 15:19:37 V1H - M 756 V1H 1782
1901 DE FREITAS Joaquim 15:19:38 V2H - M 187 V2H 2691
1902 GALISSON Christophe 15:20:17 V2H - M 188 V2H 2017
1903 VANINI Frederic 15:20:30 V1H - M 757 V1H 1860
1904 AUDO Nadine 15:20:59 V1F - F 46 V1F 1634
1905 DUPUY Jean Guillaume 15:21:02 SEM - M 801 SEH 755
1906 FONTAINE Pierre 15:21:10 SEM - M 802 SEH 1043
1907 GINESTE Gilles 15:21:33 V1H - M 758 V1H 2583
1908 GUILLAUMEAU Jean Luc 15:22:04 V2H - M 189 V2H 2528
1909 BEHIN Guillaume 15:22:47 SEM - M 803 SEH 852
1910 GAUFFRE Olivier 15:22:55 V1H - M 759 V1H 1301
1911 RAVISe Olivier 15:23:15 V2H - M 190 V2H 2531
1912 MERCIER Marie Dolores 15:23:53 V1F - F 47 V1F 1371
1913 KAMEL Denis 15:23:55 V1H - M 760 V1H 1372
1914 PARIS Benoit 15:24:05 V2H - M 191 V2H 973
1915 COLAS Christophe 15:24:06 SEM - M 804 SEH 1504
1916 DEGRUGILLIER Arnaud 15:24:12 SEM - M 805 SEH 972
1917 CLEMENT Fabrice 15:24:41 V1H - M 761 V1H 2874
1918 GENNA Vincent 15:24:42 SEM - M 806 SEH 2517
1918 LAURE Ludwig 15:24:42 SEM - M 806 SEH 1924
1920 SAUVEPLANE Guillaume 15:24:43 SEM - M 808 SEH 2384
1921 TRAVERT Jean Edouard 15:25:07 SEM - M 809 SEH 2217
1922 DAVID Franck 15:25:08 V1H - M 762 V1H 2756
1923 ZAEPFFEL Vincent 15:25:25 V1H - M 763 V1H 2208
1924 POUCHAIN Marie Pierre 15:25:29 V1F - F 48 V1F 1553
1925 DUMAS Olivier 15:25:36 SEM - M 810 SEH 230
1926 CADENAT Pierre 15:25:48 V2H - M 192 V2H 1543
1927 BIOTON Gaetan 15:25:49 SEM - M 811 SEH 1533
1928 LOISEAU Romuald 15:26:25 V1H - M 764 V1H 1990
1929 PERRIER Dominique 15:26:39 V3H - M 23 V3H 2789
1929 PERRIER Nicolas 15:26:39 SEM - M 812 SEH 2596
1931 COADEBEZ Dominique 15:26:42 V2H - M 193 V2H 1485
1932 LUGOL Vincent 15:26:58 SEM - M 813 SEH 1838
1933 POUX Pierre 15:27:09 V2H - M 194 V2H 2642
1934 HOURDIN Philippe 15:28:39 V1H - M 765 V1H 1981
1934 GERARD Stephane 15:28:39 V1H - M 765 V1H 2009
1936 GLACET Emmanuel 15:28:52 V1H - M 767 V1H 1168
1937 JEGU Eric 15:29:23 V2H - M 195 V2H 2942
1938 CHARRIER Bruno 15:29:30 V1H - M 768 V1H 1874
1939 GARNIER Philippe 15:30:30 V1H - M 769 V1H 2806
1940 BEHAGUE Herve 15:31:07 V2H - M 196 V2H 1236


ReferencementCe site est listé dans la catégorie Sport : Sports extrêmes Dictionnaire
| Accueil | La Réunion  Vue du ciel | Météo | Cyclones | Volcan | Cirques de Mafate , Cilaos , Salazie | Photos Randonnées | Randonnées Réunion: Randos Espiègle , Courses montagne | Diagonale des Fous |  Marathon des Sables | Voyages Les stats du site | Fonds écran | Plan du site | Blog de runraid | Galerie photos Sport Réunion |